Time,TemperatureF,DewpointF,PressureIn,WindDirection,WindDirectionDegrees,WindSpeedMPH,WindSpeedGustMPH,Humidity,HourlyPrecipIn,Conditions,Clouds,dailyrainin,SoftwareType,DateUTC
2013-07-22 00:01:00,71.1,65.7,29.85,ESE,110,0.0,2.0,83,0.00,,---,0.00,VWS V14.00,2013-07-22 04:01:00,
2013-07-22 00:06:00,71.1,66.0,29.85,ESE,112,0.0,0.0,84,0.00,,---,0.00,VWS V14.00,2013-07-22 04:06:00,
2013-07-22 00:11:00,71.1,66.0,29.85,ESE,120,0.0,0.0,84,0.00,,---,0.00,VWS V14.00,2013-07-22 04:11:00,
2013-07-22 00:16:00,70.9,65.8,29.84,ESE,109,0.0,0.0,84,0.00,,---,0.00,VWS V14.00,2013-07-22 04:16:00,
2013-07-22 00:21:00,70.9,65.8,29.84,ESE,106,0.0,0.0,84,0.00,,---,0.00,VWS V14.00,2013-07-22 04:21:00,
2013-07-22 00:26:00,70.9,65.8,29.84,East,96,0.0,0.0,84,0.00,,---,0.00,VWS V14.00,2013-07-22 04:26:00,
2013-07-22 00:27:00,70.9,65.8,29.84,East,96,0.0,0.0,84,0.00,,---,0.00,VWS V14.00,2013-07-22 04:27:00,
2013-07-22 00:31:00,70.9,65.8,29.84,East,99,0.0,0.0,84,0.00,,---,0.00,VWS V14.00,2013-07-22 04:31:00,
2013-07-22 00:32:00,70.9,65.8,29.84,East,99,0.0,0.0,84,0.00,,---,0.00,VWS V14.00,2013-07-22 04:32:00,
2013-07-22 00:36:00,70.8,65.7,29.84,East,99,0.0,0.0,84,0.00,,---,0.00,VWS V14.00,2013-07-22 04:36:00,
2013-07-22 00:37:00,70.8,65.7,29.84,East,99,0.0,0.0,84,0.00,,---,0.00,VWS V14.00,2013-07-22 04:37:00,
2013-07-22 00:41:00,70.8,66.1,29.84,East,99,0.0,0.0,85,0.00,,---,0.00,VWS V14.00,2013-07-22 04:41:00,
2013-07-22 00:42:00,70.8,66.1,29.84,East,99,0.0,0.0,85,0.00,,---,0.00,VWS V14.00,2013-07-22 04:42:00,
2013-07-22 00:46:00,70.6,65.9,29.84,East,99,0.0,0.0,85,0.00,,---,0.00,VWS V14.00,2013-07-22 04:46:00,
2013-07-22 00:47:00,70.6,65.9,29.84,East,99,0.0,0.0,85,0.00,,---,0.00,VWS V14.00,2013-07-22 04:47:00,
2013-07-22 00:52:00,70.8,66.1,29.84,East,99,0.0,0.0,85,0.00,,---,0.00,VWS V14.00,2013-07-22 04:52:00,
2013-07-22 00:57:00,70.8,65.7,29.84,East,99,0.0,0.0,84,0.00,,---,0.00,VWS V14.00,2013-07-22 04:57:00,
2013-07-22 01:02:00,70.8,66.1,29.84,East,100,0.0,0.0,85,0.00,,---,0.00,VWS V14.00,2013-07-22 05:02:00,
2013-07-22 01:03:00,70.8,66.1,29.84,East,100,0.0,0.0,85,0.00,,---,0.00,VWS V14.00,2013-07-22 05:03:00,
2013-07-22 01:07:00,70.8,66.1,29.84,East,100,0.0,0.0,85,0.00,,---,0.00,VWS V14.00,2013-07-22 05:07:00,
2013-07-22 01:08:00,70.8,66.1,29.84,East,100,0.0,0.0,85,0.00,,---,0.00,VWS V14.00,2013-07-22 05:08:00,
2013-07-22 01:12:00,70.8,66.1,29.84,East,100,0.0,0.0,85,0.00,,---,0.00,VWS V14.00,2013-07-22 05:12:00,
2013-07-22 01:13:00,70.8,66.1,29.84,East,100,0.0,0.0,85,0.00,,---,0.00,VWS V14.00,2013-07-22 05:13:00,
2013-07-22 01:17:00,70.8,66.1,29.83,East,100,0.0,0.0,85,0.00,,---,0.00,VWS V14.00,2013-07-22 05:17:00,
2013-07-22 01:18:00,70.8,66.1,29.83,East,100,0.0,0.0,85,0.00,,---,0.00,VWS V14.00,2013-07-22 05:18:00,
2013-07-22 01:19:00,70.8,66.1,29.83,East,100,0.0,0.0,85,0.00,,---,0.00,VWS V14.00,2013-07-22 05:19:00,
2013-07-22 01:23:00,70.8,66.1,29.83,East,100,0.0,0.0,85,0.00,,---,0.00,VWS V14.00,2013-07-22 05:23:00,
2013-07-22 01:24:00,70.8,66.1,29.83,East,100,0.0,0.0,85,0.00,,---,0.00,VWS V14.00,2013-07-22 05:24:00,
2013-07-22 01:28:00,70.6,65.9,29.83,East,100,0.0,0.0,85,0.00,,---,0.00,VWS V14.00,2013-07-22 05:28:00,
2013-07-22 01:29:00,70.8,66.1,29.83,East,100,0.0,0.0,85,0.00,,---,0.00,VWS V14.00,2013-07-22 05:29:00,
2013-07-22 01:33:00,70.8,66.1,29.83,East,100,0.0,0.0,85,0.00,,---,0.00,VWS V14.00,2013-07-22 05:33:00,
2013-07-22 01:34:00,70.8,66.1,29.83,East,100,0.0,0.0,85,0.00,,---,0.00,VWS V14.00,2013-07-22 05:34:00,
2013-07-22 01:38:00,70.8,65.7,29.83,East,79,0.0,0.0,84,0.00,,---,0.00,VWS V14.00,2013-07-22 05:38:00,
2013-07-22 01:40:00,70.8,65.7,29.83,East,79,0.0,0.0,84,0.00,,---,0.00,VWS V14.00,2013-07-22 05:40:00,
2013-07-22 01:43:00,70.8,65.7,29.83,ENE,78,0.0,0.0,84,0.00,,---,0.00,VWS V14.00,2013-07-22 05:43:00,
2013-07-22 01:44:00,70.8,65.7,29.83,ENE,78,0.0,0.0,84,0.00,,---,0.00,VWS V14.00,2013-07-22 05:44:00,
2013-07-22 01:45:00,70.8,65.7,29.83,ENE,78,0.0,0.0,84,0.00,,---,0.00,VWS V14.00,2013-07-22 05:45:00,
2013-07-22 01:48:00,70.8,65.7,29.83,ENE,78,0.0,0.0,84,0.00,,---,0.00,VWS V14.00,2013-07-22 05:48:00,
2013-07-22 01:49:00,70.8,65.7,29.83,ENE,78,0.0,0.0,84,0.00,,---,0.00,VWS V14.00,2013-07-22 05:49:00,
2013-07-22 01:50:00,70.8,65.7,29.83,ENE,78,0.0,0.0,84,0.00,,---,0.00,VWS V14.00,2013-07-22 05:50:00,
2013-07-22 01:53:00,70.6,65.9,29.83,ENE,78,0.0,0.0,85,0.00,,---,0.00,VWS V14.00,2013-07-22 05:53:00,
2013-07-22 01:54:00,70.6,65.9,29.83,ENE,78,0.0,0.0,85,0.00,,---,0.00,VWS V14.00,2013-07-22 05:54:00,
2013-07-22 01:55:00,70.4,65.7,29.83,ENE,78,0.0,0.0,85,0.00,,---,0.00,VWS V14.00,2013-07-22 05:55:00,
2013-07-22 01:59:00,70.4,65.7,29.83,ENE,78,0.0,0.0,85,0.00,,---,0.00,VWS V14.00,2013-07-22 05:59:00,
2013-07-22 02:00:00,70.3,65.6,29.83,ENE,78,0.0,0.0,85,0.00,,---,0.00,VWS V14.00,2013-07-22 06:00:00,
2013-07-22 02:04:00,70.3,65.9,29.83,ENE,78,0.0,0.0,86,0.00,,---,0.00,VWS V14.00,2013-07-22 06:04:00,
2013-07-22 02:06:00,70.3,65.9,29.83,ENE,78,0.0,0.0,86,0.00,,---,0.00,VWS V14.00,2013-07-22 06:06:00,
2013-07-22 02:09:00,70.1,65.7,29.83,ENE,78,0.0,0.0,86,0.00,,---,0.00,VWS V14.00,2013-07-22 06:09:00,
2013-07-22 02:11:00,70.1,65.7,29.83,ENE,78,0.0,0.0,86,0.00,,---,0.00,VWS V14.00,2013-07-22 06:11:00,
2013-07-22 02:14:00,70.1,65.7,29.83,ENE,78,0.0,0.0,86,0.00,,---,0.00,VWS V14.00,2013-07-22 06:14:00,
2013-07-22 02:16:00,69.9,65.5,29.83,ENE,78,0.0,0.0,86,0.00,,---,0.00,VWS V14.00,2013-07-22 06:16:00,
2013-07-22 02:19:00,69.9,65.5,29.83,ENE,78,0.0,0.0,86,0.00,,---,0.00,VWS V14.00,2013-07-22 06:19:00,
2013-07-22 02:21:00,69.9,65.5,29.83,ENE,78,0.0,0.0,86,0.00,,---,0.00,VWS V14.00,2013-07-22 06:21:00,
2013-07-22 02:24:00,69.9,65.5,29.83,ENE,78,0.0,0.0,86,0.00,,---,0.00,VWS V14.00,2013-07-22 06:24:00,
2013-07-22 02:25:00,69.9,65.5,29.83,ENE,78,0.0,0.0,86,0.00,,---,0.00,VWS V14.00,2013-07-22 06:25:00,
2013-07-22 02:26:00,69.9,65.5,29.83,ENE,78,0.0,0.0,86,0.00,,---,0.00,VWS V14.00,2013-07-22 06:26:00,
2013-07-22 02:29:00,69.9,65.5,29.83,ENE,78,0.0,0.0,86,0.00,,---,0.00,VWS V14.00,2013-07-22 06:29:00,
2013-07-22 02:30:00,69.9,65.5,29.83,ENE,78,0.0,0.0,86,0.00,,---,0.00,VWS V14.00,2013-07-22 06:30:00,
2013-07-22 02:31:00,69.9,65.5,29.82,ENE,78,0.0,0.0,86,0.00,,---,0.00,VWS V14.00,2013-07-22 06:31:00,
2013-07-22 02:34:00,69.9,65.5,29.82,ENE,78,0.0,0.0,86,0.00,,---,0.00,VWS V14.00,2013-07-22 06:34:00,
2013-07-22 02:35:00,69.9,65.5,29.82,ENE,78,0.0,0.0,86,0.00,,---,0.00,VWS V14.00,2013-07-22 06:35:00,
2013-07-22 02:36:00,69.9,65.5,29.82,ENE,78,0.0,0.0,86,0.00,,---,0.00,VWS V14.00,2013-07-22 06:36:00,
2013-07-22 02:39:00,69.9,65.5,29.82,ENE,78,0.0,0.0,86,0.00,,---,0.00,VWS V14.00,2013-07-22 06:39:00,
2013-07-22 02:40:00,69.9,65.5,29.82,ENE,78,0.0,0.0,86,0.00,,---,0.00,VWS V14.00,2013-07-22 06:40:00,
2013-07-22 02:41:00,69.9,65.5,29.82,ENE,78,0.0,0.0,86,0.00,,---,0.00,VWS V14.00,2013-07-22 06:41:00,
2013-07-22 02:44:00,69.9,65.5,29.82,ENE,78,0.0,0.0,86,0.00,,---,0.00,VWS V14.00,2013-07-22 06:44:00,
2013-07-22 02:45:00,69.9,65.5,29.82,ENE,72,0.0,0.0,86,0.00,,---,0.00,VWS V14.00,2013-07-22 06:45:00,
2013-07-22 02:46:00,69.9,65.5,29.81,ENE,78,0.0,0.0,86,0.00,,---,0.00,VWS V14.00,2013-07-22 06:46:00,
2013-07-22 02:49:00,69.9,65.5,29.81,East,79,0.0,0.0,86,0.00,,---,0.00,VWS V14.00,2013-07-22 06:49:00,
2013-07-22 02:50:00,69.9,65.5,29.81,East,79,0.0,0.0,86,0.00,,---,0.00,VWS V14.00,2013-07-22 06:50:00,
2013-07-22 02:52:00,70.1,65.7,29.81,East,79,0.0,0.0,86,0.00,,---,0.00,VWS V14.00,2013-07-22 06:52:00,
2013-07-22 02:55:00,70.1,65.4,29.81,East,79,0.0,0.0,85,0.00,,---,0.00,VWS V14.00,2013-07-22 06:55:00,
2013-07-22 02:56:00,70.1,65.4,29.81,East,79,0.0,0.0,85,0.00,,---,0.00,VWS V14.00,2013-07-22 06:56:00,
2013-07-22 02:57:00,70.1,65.4,29.81,East,79,0.0,0.0,85,0.00,,---,0.00,VWS V14.00,2013-07-22 06:57:00,
2013-07-22 03:00:00,70.1,65.4,29.81,East,79,0.0,0.0,85,0.00,,---,0.00,VWS V14.00,2013-07-22 07:00:00,
2013-07-22 03:01:00,70.1,65.4,29.81,East,79,0.0,0.0,85,0.00,,---,0.00,VWS V14.00,2013-07-22 07:01:00,
2013-07-22 03:02:00,70.1,65.4,29.81,East,79,0.0,0.0,85,0.00,,---,0.00,VWS V14.00,2013-07-22 07:02:00,
2013-07-22 03:05:00,70.3,65.6,29.81,East,79,0.0,0.0,85,0.00,,---,0.00,VWS V14.00,2013-07-22 07:05:00,
2013-07-22 03:06:00,70.3,65.6,29.81,East,79,0.0,0.0,85,0.00,,---,0.00,VWS V14.00,2013-07-22 07:06:00,
2013-07-22 03:07:00,70.3,65.6,29.81,East,79,0.0,0.0,85,0.00,,---,0.00,VWS V14.00,2013-07-22 07:07:00,
2013-07-22 03:10:00,70.3,65.6,29.81,East,79,0.0,0.0,85,0.00,,---,0.00,VWS V14.00,2013-07-22 07:10:00,
2013-07-22 03:11:00,70.3,65.6,29.81,East,79,0.0,0.0,85,0.00,,---,0.00,VWS V14.00,2013-07-22 07:11:00,
2013-07-22 03:12:00,70.3,65.6,29.81,East,79,0.0,0.0,85,0.00,,---,0.00,VWS V14.00,2013-07-22 07:12:00,
2013-07-22 03:15:00,70.3,65.6,29.81,East,79,0.0,0.0,85,0.00,,---,0.00,VWS V14.00,2013-07-22 07:15:00,
2013-07-22 03:16:00,70.1,65.4,29.80,East,79,0.0,1.0,85,0.00,,---,0.00,VWS V14.00,2013-07-22 07:16:00,
2013-07-22 03:17:00,70.1,65.4,29.80,East,82,0.0,4.0,85,0.00,,---,0.00,VWS V14.00,2013-07-22 07:17:00,
2013-07-22 03:20:00,70.1,65.4,29.80,East,82,0.0,4.0,85,0.00,,---,0.00,VWS V14.00,2013-07-22 07:20:00,
2013-07-22 03:21:00,70.1,65.4,29.80,East,82,0.0,4.0,85,0.00,,---,0.00,VWS V14.00,2013-07-22 07:21:00,
2013-07-22 03:23:00,70.1,65.7,29.80,East,82,0.0,4.0,86,0.00,,---,0.00,VWS V14.00,2013-07-22 07:23:00,
2013-07-22 03:25:00,70.1,65.4,29.80,East,82,0.0,4.0,85,0.00,,---,0.00,VWS V14.00,2013-07-22 07:25:00,
2013-07-22 03:26:00,70.1,65.4,29.80,East,82,0.0,4.0,85,0.00,,---,0.00,VWS V14.00,2013-07-22 07:26:00,
2013-07-22 03:28:00,70.1,65.7,29.80,East,82,0.0,4.0,86,0.00,,---,0.00,VWS V14.00,2013-07-22 07:28:00,
2013-07-22 03:30:00,70.1,65.4,29.80,ENE,78,0.0,4.0,85,0.00,,---,0.00,VWS V14.00,2013-07-22 07:30:00,
2013-07-22 03:31:00,70.1,65.7,29.80,ENE,78,0.0,4.0,86,0.00,,---,0.00,VWS V14.00,2013-07-22 07:31:00,
2013-07-22 03:32:00,70.1,65.7,29.80,ENE,78,0.0,4.0,86,0.00,,---,0.00,VWS V14.00,2013-07-22 07:32:00,
2013-07-22 03:33:00,70.1,65.7,29.80,ENE,75,0.0,4.0,86,0.00,,---,0.00,VWS V14.00,2013-07-22 07:33:00,
2013-07-22 03:35:00,70.1,65.7,29.80,ENE,75,0.0,4.0,86,0.00,,---,0.00,VWS V14.00,2013-07-22 07:35:00,
2013-07-22 03:36:00,70.1,65.7,29.80,ENE,75,0.0,4.0,86,0.00,,---,0.00,VWS V14.00,2013-07-22 07:36:00,
2013-07-22 03:37:00,70.1,65.4,29.80,ENE,64,0.0,4.0,85,0.00,,---,0.00,VWS V14.00,2013-07-22 07:37:00,
2013-07-22 03:38:00,70.3,65.6,29.80,ENE,65,0.0,4.0,85,0.00,,---,0.00,VWS V14.00,2013-07-22 07:38:00,
2013-07-22 03:40:00,70.3,65.6,29.80,ENE,65,0.0,4.0,85,0.00,,---,0.00,VWS V14.00,2013-07-22 07:40:00,
2013-07-22 03:41:00,70.3,65.6,29.80,ENE,65,0.0,4.0,85,0.00,,---,0.00,VWS V14.00,2013-07-22 07:41:00,
2013-07-22 03:42:00,70.3,65.6,29.80,ENE,65,0.0,4.0,85,0.00,,---,0.00,VWS V14.00,2013-07-22 07:42:00,
2013-07-22 03:43:00,70.3,65.6,29.80,East,82,1.0,4.0,85,0.00,,---,0.00,VWS V14.00,2013-07-22 07:43:00,
2013-07-22 03:46:00,70.3,65.6,29.80,East,82,0.0,4.0,85,0.00,,---,0.00,VWS V14.00,2013-07-22 07:46:00,
2013-07-22 03:47:00,70.3,65.6,29.80,East,82,0.0,4.0,85,0.00,,---,0.00,VWS V14.00,2013-07-22 07:47:00,
2013-07-22 03:49:00,70.3,65.6,29.80,East,82,0.0,4.0,85,0.00,,---,0.00,VWS V14.00,2013-07-22 07:49:00,
2013-07-22 03:51:00,70.3,65.6,29.80,East,82,0.0,4.0,85,0.00,,---,0.00,VWS V14.00,2013-07-22 07:51:00,
2013-07-22 03:52:00,70.3,65.6,29.80,East,82,0.0,4.0,85,0.00,,---,0.00,VWS V14.00,2013-07-22 07:52:00,
2013-07-22 03:54:00,70.3,65.9,29.80,East,82,0.0,4.0,86,0.00,,---,0.00,VWS V14.00,2013-07-22 07:54:00,
2013-07-22 03:56:00,70.3,65.9,29.80,East,82,0.0,4.0,86,0.00,,---,0.00,VWS V14.00,2013-07-22 07:56:00,
2013-07-22 03:57:00,70.3,65.9,29.80,East,82,0.0,4.0,86,0.00,,---,0.00,VWS V14.00,2013-07-22 07:57:00,
2013-07-22 03:59:00,70.3,65.9,29.80,East,82,0.0,4.0,86,0.00,,---,0.00,VWS V14.00,2013-07-22 07:59:00,
2013-07-22 04:01:00,70.1,65.7,29.80,East,82,0.0,4.0,86,0.00,,---,0.00,VWS V14.00,2013-07-22 08:01:00,
2013-07-22 04:02:00,70.1,66.1,29.80,East,82,0.0,0.0,87,0.00,,---,0.00,VWS V14.00,2013-07-22 08:02:00,
2013-07-22 04:04:00,69.9,65.9,29.80,East,82,0.0,0.0,87,0.00,,---,0.00,VWS V14.00,2013-07-22 08:04:00,
2013-07-22 04:06:00,69.9,65.9,29.80,East,82,0.0,0.0,87,0.00,,---,0.00,VWS V14.00,2013-07-22 08:06:00,
2013-07-22 04:07:00,69.9,65.9,29.80,East,82,0.0,0.0,87,0.00,,---,0.00,VWS V14.00,2013-07-22 08:07:00,
2013-07-22 04:08:00,69.9,65.9,29.80,East,82,0.0,0.0,87,0.00,,---,0.00,VWS V14.00,2013-07-22 08:08:00,
2013-07-22 04:09:00,69.9,65.9,29.80,East,82,0.0,0.0,87,0.00,,---,0.00,VWS V14.00,2013-07-22 08:09:00,
2013-07-22 04:11:00,69.9,66.2,29.80,WNW,291,7.0,7.0,88,0.00,,---,0.00,VWS V14.00,2013-07-22 08:11:00,
2013-07-22 04:12:00,69.9,66.2,29.80,West,277,8.0,8.0,88,0.00,,---,0.00,VWS V14.00,2013-07-22 08:12:00,
2013-07-22 04:13:00,69.9,66.2,29.80,WNW,282,8.0,8.0,88,0.00,,---,0.00,VWS V14.00,2013-07-22 08:13:00,
2013-07-22 04:14:00,69.9,66.2,29.80,West,267,8.0,10.0,88,0.00,,---,0.00,VWS V14.00,2013-07-22 08:14:00,
2013-07-22 04:16:00,69.8,66.1,29.80,West,270,8.0,13.0,88,0.00,,---,0.00,VWS V14.00,2013-07-22 08:16:00,
2013-07-22 04:18:00,69.8,66.1,29.80,WNW,287,4.0,13.0,88,0.00,,---,0.00,VWS V14.00,2013-07-22 08:18:00,
2013-07-22 04:19:00,69.8,66.1,29.80,West,275,8.0,13.0,88,0.00,,---,0.00,VWS V14.00,2013-07-22 08:19:00,
2013-07-22 04:22:00,69.6,65.9,29.80,NW,313,2.0,13.0,88,0.00,,---,0.00,VWS V14.00,2013-07-22 08:22:00,
2013-07-22 04:23:00,69.6,65.9,29.80,NNW,337,0.0,13.0,88,0.00,,---,0.00,VWS V14.00,2013-07-22 08:23:00,
2013-07-22 04:24:00,69.6,65.9,29.80,NNW,337,0.0,13.0,88,0.00,,---,0.00,VWS V14.00,2013-07-22 08:24:00,
2013-07-22 04:27:00,69.6,65.9,29.80,NNW,337,0.0,13.0,88,0.00,,---,0.00,VWS V14.00,2013-07-22 08:27:00,
2013-07-22 04:28:00,69.6,65.9,29.80,NNW,337,0.0,13.0,88,0.00,,---,0.00,VWS V14.00,2013-07-22 08:28:00,
2013-07-22 04:29:00,69.4,65.7,29.80,NNW,336,0.0,13.0,88,0.00,,---,0.00,VWS V14.00,2013-07-22 08:29:00,
2013-07-22 04:32:00,69.4,66.0,29.81,WNW,289,1.0,13.0,89,0.00,,---,0.00,VWS V14.00,2013-07-22 08:32:00,
2013-07-22 04:33:00,69.4,66.0,29.81,West,270,0.0,13.0,89,0.00,,---,0.00,VWS V14.00,2013-07-22 08:33:00,
2013-07-22 04:34:00,69.4,66.0,29.81,West,270,0.0,13.0,89,0.00,,---,0.00,VWS V14.00,2013-07-22 08:34:00,
2013-07-22 04:37:00,69.4,66.0,29.81,West,278,0.0,13.0,89,0.00,,---,0.00,VWS V14.00,2013-07-22 08:37:00,
2013-07-22 04:38:00,69.3,65.9,29.81,West,278,0.0,13.0,89,0.00,,---,0.00,VWS V14.00,2013-07-22 08:38:00,
2013-07-22 04:39:00,69.3,65.9,29.81,West,278,0.0,13.0,89,0.00,,---,0.00,VWS V14.00,2013-07-22 08:39:00,
2013-07-22 04:42:00,69.3,65.9,29.81,West,278,0.0,13.0,89,0.00,,---,0.00,VWS V14.00,2013-07-22 08:42:00,
2013-07-22 04:43:00,69.3,65.9,29.81,West,278,0.0,13.0,89,0.00,,---,0.00,VWS V14.00,2013-07-22 08:43:00,
2013-07-22 04:44:00,69.3,65.9,29.81,West,278,0.0,13.0,89,0.00,,---,0.00,VWS V14.00,2013-07-22 08:44:00,
2013-07-22 04:47:00,69.4,66.0,29.80,West,278,0.0,13.0,89,0.00,,---,0.00,VWS V14.00,2013-07-22 08:47:00,
2013-07-22 04:48:00,69.4,66.0,29.80,West,278,0.0,13.0,89,0.00,,---,0.00,VWS V14.00,2013-07-22 08:48:00,
2013-07-22 04:49:00,69.4,66.0,29.80,West,278,0.0,13.0,89,0.00,,---,0.00,VWS V14.00,2013-07-22 08:49:00,
2013-07-22 04:53:00,69.3,66.2,29.80,West,278,0.0,13.0,90,0.00,,---,0.00,VWS V14.00,2013-07-22 08:53:00,
2013-07-22 04:54:00,69.3,66.2,29.80,West,278,0.0,13.0,90,0.00,,---,0.00,VWS V14.00,2013-07-22 08:54:00,
2013-07-22 04:55:00,69.3,66.2,29.80,West,278,0.0,13.0,90,0.00,,---,0.00,VWS V14.00,2013-07-22 08:55:00,
2013-07-22 04:58:00,69.3,66.2,29.80,West,278,0.0,13.0,90,0.00,,---,0.00,VWS V14.00,2013-07-22 08:58:00,
2013-07-22 04:59:00,69.3,66.2,29.80,West,278,0.0,13.0,90,0.00,,---,0.00,VWS V14.00,2013-07-22 08:59:00,
2013-07-22 05:00:00,69.1,66.1,29.80,West,278,0.0,13.0,90,0.00,,---,0.00,VWS V14.00,2013-07-22 09:00:00,
2013-07-22 05:03:00,69.1,66.1,29.79,West,278,0.0,0.0,90,0.00,,---,0.00,VWS V14.00,2013-07-22 09:03:00,
2013-07-22 05:04:00,69.1,66.1,29.79,West,278,0.0,0.0,90,0.00,,---,0.00,VWS V14.00,2013-07-22 09:04:00,
2013-07-22 05:05:00,69.1,66.1,29.79,West,278,0.0,0.0,90,0.00,,---,0.00,VWS V14.00,2013-07-22 09:05:00,
2013-07-22 05:08:00,69.1,66.4,29.79,West,278,0.0,0.0,91,0.00,,---,0.00,VWS V14.00,2013-07-22 09:08:00,
2013-07-22 05:09:00,69.1,66.4,29.79,West,278,0.0,0.0,91,0.01,,---,0.01,VWS V14.00,2013-07-22 09:09:00,
2013-07-22 05:10:00,69.1,66.4,29.79,West,278,0.0,0.0,91,0.01,,---,0.01,VWS V14.00,2013-07-22 09:10:00,
2013-07-22 05:13:00,68.9,66.2,29.79,West,278,0.0,0.0,91,0.01,,---,0.01,VWS V14.00,2013-07-22 09:13:00,
2013-07-22 05:14:00,69.1,66.4,29.79,West,278,0.0,0.0,91,0.01,,---,0.01,VWS V14.00,2013-07-22 09:14:00,
2013-07-22 05:15:00,69.1,66.4,29.79,West,278,0.0,0.0,91,0.01,,---,0.01,VWS V14.00,2013-07-22 09:15:00,
2013-07-22 05:19:00,69.1,66.7,29.80,West,278,0.0,0.0,92,0.01,,---,0.01,VWS V14.00,2013-07-22 09:19:00,
2013-07-22 05:20:00,68.9,66.5,29.80,West,278,0.0,0.0,92,0.01,,---,0.01,VWS V14.00,2013-07-22 09:20:00,
2013-07-22 05:24:00,69.1,66.7,29.80,West,278,0.0,0.0,92,0.01,,---,0.01,VWS V14.00,2013-07-22 09:24:00,
2013-07-22 05:25:00,68.9,66.5,29.80,West,278,0.0,0.0,92,0.01,,---,0.01,VWS V14.00,2013-07-22 09:25:00,
2013-07-22 05:29:00,68.9,66.5,29.80,West,278,0.0,0.0,92,0.01,,---,0.01,VWS V14.00,2013-07-22 09:29:00,
2013-07-22 05:30:00,68.9,66.5,29.80,West,278,0.0,0.0,92,0.01,,---,0.01,VWS V14.00,2013-07-22 09:30:00,
2013-07-22 05:31:00,68.9,66.5,29.79,West,278,0.0,0.0,92,0.01,,---,0.01,VWS V14.00,2013-07-22 09:31:00,
2013-07-22 05:34:00,68.8,66.4,29.79,West,278,0.0,0.0,92,0.01,,---,0.01,VWS V14.00,2013-07-22 09:34:00,
2013-07-22 05:35:00,68.8,66.4,29.79,West,278,0.0,0.0,92,0.01,,---,0.01,VWS V14.00,2013-07-22 09:35:00,
2013-07-22 05:36:00,68.8,66.4,29.79,West,278,0.0,0.0,92,0.01,,---,0.01,VWS V14.00,2013-07-22 09:36:00,
2013-07-22 05:39:00,68.8,66.7,29.79,West,278,0.0,0.0,93,0.01,,---,0.01,VWS V14.00,2013-07-22 09:39:00,
2013-07-22 05:40:00,68.8,66.7,29.79,West,278,0.0,0.0,93,0.02,,---,0.02,VWS V14.00,2013-07-22 09:40:00,
2013-07-22 05:41:00,68.8,66.7,29.79,West,278,0.0,0.0,93,0.02,,---,0.02,VWS V14.00,2013-07-22 09:41:00,
2013-07-22 05:44:00,68.6,66.5,29.79,West,278,0.0,0.0,93,0.02,,---,0.02,VWS V14.00,2013-07-22 09:44:00,
2013-07-22 05:45:00,68.6,66.5,29.79,West,278,0.0,0.0,93,0.02,,---,0.02,VWS V14.00,2013-07-22 09:45:00,
2013-07-22 05:46:00,68.6,66.5,29.79,West,278,0.0,0.0,93,0.02,,---,0.02,VWS V14.00,2013-07-22 09:46:00,
2013-07-22 05:49:00,68.6,66.5,29.79,West,278,0.0,0.0,93,0.02,,---,0.02,VWS V14.00,2013-07-22 09:49:00,
2013-07-22 05:50:00,68.6,66.5,29.79,West,278,0.0,0.0,93,0.02,,---,0.02,VWS V14.00,2013-07-22 09:50:00,
2013-07-22 05:51:00,68.6,66.5,29.79,West,278,0.0,0.0,93,0.02,,---,0.02,VWS V14.00,2013-07-22 09:51:00,
2013-07-22 05:52:00,68.6,66.5,29.79,West,278,0.0,0.0,93,0.02,,---,0.02,VWS V14.00,2013-07-22 09:52:00,
2013-07-22 05:55:00,68.6,66.8,29.79,West,278,0.0,0.0,94,0.02,,---,0.02,VWS V14.00,2013-07-22 09:55:00,
2013-07-22 05:56:00,68.6,66.8,29.79,West,278,0.0,0.0,94,0.02,,---,0.02,VWS V14.00,2013-07-22 09:56:00,
2013-07-22 05:57:00,68.6,66.8,29.79,West,278,0.0,0.0,94,0.02,,---,0.02,VWS V14.00,2013-07-22 09:57:00,
2013-07-22 06:00:00,68.6,66.8,29.79,West,278,0.0,0.0,94,0.02,,---,0.02,VWS V14.00,2013-07-22 10:00:00,
2013-07-22 06:01:00,68.6,66.8,29.79,West,278,0.0,0.0,94,0.02,,---,0.02,VWS V14.00,2013-07-22 10:01:00,
2013-07-22 06:02:00,68.6,66.8,29.79,West,278,0.0,0.0,94,0.02,,---,0.02,VWS V14.00,2013-07-22 10:02:00,
2013-07-22 06:05:00,68.4,66.6,29.79,West,278,0.0,0.0,94,0.02,,---,0.02,VWS V14.00,2013-07-22 10:05:00,
2013-07-22 06:06:00,68.4,66.6,29.79,West,278,0.0,0.0,94,0.02,,---,0.02,VWS V14.00,2013-07-22 10:06:00,
2013-07-22 06:07:00,68.4,66.6,29.79,West,278,0.0,0.0,94,0.02,,---,0.02,VWS V14.00,2013-07-22 10:07:00,
2013-07-22 06:10:00,68.4,66.6,29.79,West,278,0.0,0.0,94,0.03,,---,0.03,VWS V14.00,2013-07-22 10:10:00,
2013-07-22 06:11:00,68.4,66.6,29.79,West,278,0.0,0.0,94,0.03,,---,0.03,VWS V14.00,2013-07-22 10:11:00,
2013-07-22 06:12:00,68.4,66.6,29.79,West,278,0.0,0.0,94,0.03,,---,0.03,VWS V14.00,2013-07-22 10:12:00,
2013-07-22 06:15:00,68.4,66.9,29.78,West,278,0.0,0.0,95,0.03,,---,0.03,VWS V14.00,2013-07-22 10:15:00,
2013-07-22 06:16:00,68.4,66.9,29.78,West,278,0.0,0.0,95,0.03,,---,0.03,VWS V14.00,2013-07-22 10:16:00,
2013-07-22 06:17:00,68.4,66.9,29.78,West,278,0.0,0.0,95,0.03,,---,0.03,VWS V14.00,2013-07-22 10:17:00,
2013-07-22 06:21:00,68.6,67.1,29.78,West,278,0.0,0.0,95,0.03,,---,0.03,VWS V14.00,2013-07-22 10:21:00,
2013-07-22 06:22:00,68.6,67.1,29.78,West,278,0.0,0.0,95,0.03,,---,0.03,VWS V14.00,2013-07-22 10:22:00,
2013-07-22 06:26:00,68.6,67.1,29.78,West,277,0.0,0.0,95,0.03,,---,0.03,VWS V14.00,2013-07-22 10:26:00,
2013-07-22 06:27:00,68.8,67.3,29.78,SSW,208,0.0,0.0,95,0.03,,---,0.03,VWS V14.00,2013-07-22 10:27:00,
2013-07-22 06:31:00,68.6,67.1,29.77,ESE,120,0.0,0.0,95,0.03,,---,0.03,VWS V14.00,2013-07-22 10:31:00,
2013-07-22 06:32:00,68.6,67.1,29.77,ESE,120,0.0,0.0,95,0.03,,---,0.03,VWS V14.00,2013-07-22 10:32:00,
2013-07-22 06:33:00,68.6,67.1,29.77,ESE,120,0.0,0.0,95,0.03,,---,0.03,VWS V14.00,2013-07-22 10:33:00,
2013-07-22 06:36:00,68.4,66.9,29.77,ESE,120,0.0,0.0,95,0.03,,---,0.03,VWS V14.00,2013-07-22 10:36:00,
2013-07-22 06:38:00,68.4,66.9,29.77,East,100,0.0,0.0,95,0.03,,---,0.03,VWS V14.00,2013-07-22 10:38:00,
2013-07-22 06:41:00,68.3,66.8,29.77,SE,127,0.0,0.0,95,0.03,,---,0.03,VWS V14.00,2013-07-22 10:41:00,
2013-07-22 06:43:00,68.1,66.6,29.77,SE,127,0.0,0.0,95,0.04,,---,0.04,VWS V14.00,2013-07-22 10:43:00,
2013-07-22 06:46:00,68.1,66.6,29.77,ESE,123,0.0,0.0,95,0.04,,---,0.04,VWS V14.00,2013-07-22 10:46:00,
2013-07-22 06:48:00,67.9,66.4,29.77,SE,127,0.0,0.0,95,0.04,,---,0.04,VWS V14.00,2013-07-22 10:48:00,
2013-07-22 06:51:00,67.8,66.3,29.77,SE,127,0.0,0.0,95,0.04,,---,0.04,VWS V14.00,2013-07-22 10:51:00,
2013-07-22 06:53:00,67.9,66.4,29.77,SE,127,0.0,0.0,95,0.04,,---,0.04,VWS V14.00,2013-07-22 10:53:00,
2013-07-22 06:56:00,67.9,66.4,29.77,East,86,0.0,6.0,95,0.04,,---,0.04,VWS V14.00,2013-07-22 10:56:00,
2013-07-22 06:58:00,67.8,66.3,29.77,ESE,107,0.0,6.0,95,0.04,,---,0.04,VWS V14.00,2013-07-22 10:58:00,
2013-07-22 07:01:00,67.8,66.3,29.76,East,89,0.0,0.0,95,0.02,,---,0.04,VWS V14.00,2013-07-22 11:01:00,
2013-07-22 07:03:00,67.8,66.3,29.76,East,92,0.0,2.0,95,0.02,,---,0.04,VWS V14.00,2013-07-22 11:03:00,
2013-07-22 07:06:00,67.8,66.3,29.76,ESE,112,0.0,2.0,95,0.02,,---,0.04,VWS V14.00,2013-07-22 11:06:00,
2013-07-22 07:07:00,67.8,66.3,29.76,ESE,112,0.0,2.0,95,0.02,,---,0.04,VWS V14.00,2013-07-22 11:07:00,
2013-07-22 07:08:00,67.8,66.3,29.76,ESE,112,0.0,2.0,95,0.02,,---,0.04,VWS V14.00,2013-07-22 11:08:00,
2013-07-22 07:09:00,67.8,66.3,29.76,ESE,112,0.0,2.0,95,0.02,,---,0.04,VWS V14.00,2013-07-22 11:09:00,
2013-07-22 07:12:00,67.8,66.3,29.76,ESE,113,0.0,2.0,95,0.02,,---,0.04,VWS V14.00,2013-07-22 11:12:00,
2013-07-22 07:13:00,67.8,66.3,29.76,ESE,106,0.0,2.0,95,0.02,,---,0.04,VWS V14.00,2013-07-22 11:13:00,
2013-07-22 07:14:00,67.8,66.3,29.76,ESE,106,0.0,2.0,95,0.02,,---,0.04,VWS V14.00,2013-07-22 11:14:00,
2013-07-22 07:17:00,67.9,66.4,29.77,SE,141,0.0,2.0,95,0.02,,---,0.04,VWS V14.00,2013-07-22 11:17:00,
2013-07-22 07:19:00,67.9,66.4,29.77,ESE,117,0.0,2.0,95,0.02,,---,0.04,VWS V14.00,2013-07-22 11:19:00,
2013-07-22 07:22:00,67.9,66.4,29.77,ESE,110,0.0,2.0,95,0.02,,---,0.04,VWS V14.00,2013-07-22 11:22:00,
2013-07-22 07:24:00,67.9,66.4,29.77,ESE,102,0.0,2.0,95,0.02,,---,0.04,VWS V14.00,2013-07-22 11:24:00,
2013-07-22 07:27:00,67.9,66.4,29.77,SE,126,1.0,6.0,95,0.02,,---,0.04,VWS V14.00,2013-07-22 11:27:00,
2013-07-22 07:28:00,68.1,66.6,29.77,SE,124,0.0,6.0,95,0.02,,---,0.04,VWS V14.00,2013-07-22 11:28:00,
2013-07-22 07:29:00,68.1,66.6,29.77,ESE,110,0.0,6.0,95,0.02,,---,0.04,VWS V14.00,2013-07-22 11:29:00,
2013-07-22 07:32:00,68.1,66.3,29.77,SE,124,0.0,7.0,94,0.02,,---,0.04,VWS V14.00,2013-07-22 11:32:00,
2013-07-22 07:33:00,68.1,66.3,29.77,SE,126,0.0,7.0,94,0.02,,---,0.04,VWS V14.00,2013-07-22 11:33:00,
2013-07-22 07:34:00,68.1,66.3,29.77,SE,124,0.0,7.0,94,0.02,,---,0.04,VWS V14.00,2013-07-22 11:34:00,
2013-07-22 07:35:00,68.1,66.3,29.77,SE,124,0.0,7.0,94,0.02,,---,0.04,VWS V14.00,2013-07-22 11:35:00,
2013-07-22 07:37:00,68.3,66.8,29.77,ESE,113,0.0,7.0,95,0.02,,---,0.04,VWS V14.00,2013-07-22 11:37:00,
2013-07-22 07:38:00,68.3,66.8,29.77,ESE,113,0.0,7.0,95,0.02,,---,0.04,VWS V14.00,2013-07-22 11:38:00,
2013-07-22 07:39:00,68.4,66.6,29.77,ESE,113,0.0,7.0,94,0.02,,---,0.04,VWS V14.00,2013-07-22 11:39:00,
2013-07-22 07:40:00,68.4,66.6,29.77,ESE,113,0.0,7.0,94,0.02,,---,0.04,VWS V14.00,2013-07-22 11:40:00,
2013-07-22 07:42:00,68.4,66.6,29.77,ESE,113,0.0,7.0,94,0.02,,---,0.04,VWS V14.00,2013-07-22 11:42:00,
2013-07-22 07:43:00,68.4,66.6,29.77,ESE,113,0.0,7.0,94,0.02,,---,0.04,VWS V14.00,2013-07-22 11:43:00,
2013-07-22 07:44:00,68.4,66.6,29.77,ESE,113,0.0,7.0,94,0.02,,---,0.04,VWS V14.00,2013-07-22 11:44:00,
2013-07-22 07:45:00,68.4,66.6,29.77,ESE,113,0.0,7.0,94,0.02,,---,0.04,VWS V14.00,2013-07-22 11:45:00,
2013-07-22 07:47:00,68.6,66.8,29.77,ESE,113,0.0,7.0,94,0.02,,---,0.04,VWS V14.00,2013-07-22 11:47:00,
2013-07-22 07:48:00,68.6,66.8,29.77,ESE,113,0.0,7.0,94,0.02,,---,0.04,VWS V14.00,2013-07-22 11:48:00,
2013-07-22 07:50:00,68.6,66.5,29.77,ESE,113,0.0,7.0,93,0.02,,---,0.04,VWS V14.00,2013-07-22 11:50:00,
2013-07-22 07:52:00,68.9,66.8,29.77,ESE,113,0.0,7.0,93,0.02,,---,0.04,VWS V14.00,2013-07-22 11:52:00,
2013-07-22 07:53:00,68.9,66.8,29.77,ESE,113,0.0,7.0,93,0.02,,---,0.04,VWS V14.00,2013-07-22 11:53:00,
2013-07-22 07:55:00,68.9,66.8,29.77,ESE,113,0.0,7.0,93,0.02,,---,0.04,VWS V14.00,2013-07-22 11:55:00,
2013-07-22 07:56:00,68.9,66.8,29.77,ESE,113,0.0,7.0,93,0.02,,---,0.04,VWS V14.00,2013-07-22 11:56:00,
2013-07-22 07:57:00,68.9,66.8,29.77,ESE,116,0.0,7.0,93,0.02,,---,0.04,VWS V14.00,2013-07-22 11:57:00,
2013-07-22 07:58:00,68.8,66.7,29.77,ESE,116,0.0,7.0,93,0.02,,---,0.04,VWS V14.00,2013-07-22 11:58:00,
2013-07-22 08:00:00,68.8,66.7,29.78,ESE,116,0.0,7.0,93,0.02,,---,0.04,VWS V14.00,2013-07-22 12:00:00,
2013-07-22 08:01:00,68.9,66.8,29.78,ESE,116,0.0,7.0,93,0.02,,---,0.04,VWS V14.00,2013-07-22 12:01:00,
2013-07-22 08:03:00,69.1,67.0,29.78,ESE,116,0.0,0.0,93,0.00,,---,0.04,VWS V14.00,2013-07-22 12:03:00,
2013-07-22 08:05:00,69.1,66.7,29.78,ESE,116,0.0,0.0,92,0.00,,---,0.04,VWS V14.00,2013-07-22 12:05:00,
2013-07-22 08:06:00,69.1,66.7,29.78,ESE,116,0.0,0.0,92,0.00,,---,0.04,VWS V14.00,2013-07-22 12:06:00,
2013-07-22 08:08:00,69.3,67.2,29.78,ESE,116,0.0,0.0,93,0.00,,---,0.04,VWS V14.00,2013-07-22 12:08:00,
2013-07-22 08:09:00,69.4,67.0,29.78,ESE,116,0.0,0.0,92,0.00,,---,0.04,VWS V14.00,2013-07-22 12:09:00,
2013-07-22 08:10:00,69.6,67.5,29.78,ESE,116,0.0,0.0,93,0.00,,---,0.04,VWS V14.00,2013-07-22 12:10:00,
2013-07-22 08:11:00,69.6,67.2,29.78,ESE,116,0.0,0.0,92,0.00,,---,0.04,VWS V14.00,2013-07-22 12:11:00,
2013-07-22 08:13:00,69.6,67.2,29.78,ESE,116,0.0,0.0,92,0.00,,---,0.04,VWS V14.00,2013-07-22 12:13:00,
2013-07-22 08:14:00,69.6,67.2,29.78,ESE,116,0.0,0.0,92,0.00,,---,0.04,VWS V14.00,2013-07-22 12:14:00,
2013-07-22 08:16:00,69.8,67.4,29.78,ESE,116,0.0,0.0,92,0.00,,---,0.04,VWS V14.00,2013-07-22 12:16:00,
2013-07-22 08:19:00,69.9,67.5,29.78,ESE,116,0.0,0.0,92,0.00,,---,0.04,VWS V14.00,2013-07-22 12:19:00,
2013-07-22 08:21:00,69.9,67.5,29.78,ESE,116,0.0,0.0,92,0.00,,---,0.04,VWS V14.00,2013-07-22 12:21:00,
2013-07-22 08:24:00,69.8,67.4,29.78,ESE,116,0.0,0.0,92,0.00,,---,0.04,VWS V14.00,2013-07-22 12:24:00,
2013-07-22 08:26:00,69.9,67.5,29.78,ESE,116,0.0,0.0,92,0.00,,---,0.04,VWS V14.00,2013-07-22 12:26:00,
2013-07-22 08:29:00,69.9,67.5,29.78,ESE,116,0.0,0.0,92,0.00,,---,0.04,VWS V14.00,2013-07-22 12:29:00,
2013-07-22 08:31:00,70.1,67.7,29.78,ESE,116,0.0,0.0,92,0.00,,---,0.04,VWS V14.00,2013-07-22 12:31:00,
2013-07-22 08:32:00,70.1,67.7,29.78,ESE,116,0.0,0.0,92,0.00,,---,0.04,VWS V14.00,2013-07-22 12:32:00,
2013-07-22 08:34:00,70.1,67.7,29.78,ESE,116,0.0,0.0,92,0.00,,---,0.04,VWS V14.00,2013-07-22 12:34:00,
2013-07-22 08:36:00,70.1,67.7,29.78,ESE,116,0.0,0.0,92,0.00,,---,0.04,VWS V14.00,2013-07-22 12:36:00,
2013-07-22 08:37:00,70.1,67.7,29.78,ESE,116,0.0,0.0,92,0.00,,---,0.04,VWS V14.00,2013-07-22 12:37:00,
2013-07-22 08:39:00,70.1,67.7,29.78,ESE,116,0.0,0.0,92,0.00,,---,0.04,VWS V14.00,2013-07-22 12:39:00,
2013-07-22 08:40:00,70.1,67.7,29.78,ESE,116,0.0,0.0,92,0.00,,---,0.04,VWS V14.00,2013-07-22 12:40:00,
2013-07-22 08:41:00,70.3,67.9,29.78,ESE,116,0.0,0.0,92,0.00,,---,0.04,VWS V14.00,2013-07-22 12:41:00,
2013-07-22 08:42:00,70.3,67.9,29.78,ESE,116,0.0,0.0,92,0.00,,---,0.04,VWS V14.00,2013-07-22 12:42:00,
2013-07-22 08:44:00,70.3,67.9,29.78,ESE,116,0.0,0.0,92,0.00,,---,0.04,VWS V14.00,2013-07-22 12:44:00,
2013-07-22 08:45:00,70.4,68.0,29.77,ESE,116,0.0,0.0,92,0.00,,---,0.04,VWS V14.00,2013-07-22 12:45:00,
2013-07-22 08:47:00,70.3,67.9,29.77,ESE,116,0.0,0.0,92,0.00,,---,0.04,VWS V14.00,2013-07-22 12:47:00,
2013-07-22 08:49:00,70.4,68.0,29.77,ESE,116,0.0,0.0,92,0.00,,---,0.04,VWS V14.00,2013-07-22 12:49:00,
2013-07-22 08:50:00,70.4,68.0,29.77,ESE,116,0.0,0.0,92,0.00,,---,0.04,VWS V14.00,2013-07-22 12:50:00,
2013-07-22 08:52:00,70.4,67.7,29.77,ESE,116,0.0,0.0,91,0.00,,---,0.04,VWS V14.00,2013-07-22 12:52:00,
2013-07-22 08:54:00,70.4,68.0,29.77,ESE,116,0.0,0.0,92,0.00,,---,0.04,VWS V14.00,2013-07-22 12:54:00,
2013-07-22 08:55:00,70.4,68.0,29.77,ESE,116,0.0,0.0,92,0.00,,---,0.04,VWS V14.00,2013-07-22 12:55:00,
2013-07-22 08:57:00,70.4,67.7,29.77,ESE,116,0.0,0.0,91,0.00,,---,0.04,VWS V14.00,2013-07-22 12:57:00,
2013-07-22 08:58:00,70.3,67.6,29.77,ESE,116,0.0,0.0,91,0.00,,---,0.04,VWS V14.00,2013-07-22 12:58:00,
2013-07-22 08:59:00,70.4,67.7,29.77,ESE,116,0.0,0.0,91,0.00,,---,0.04,VWS V14.00,2013-07-22 12:59:00,
2013-07-22 09:00:00,70.4,67.7,29.77,ESE,116,0.0,0.0,91,0.00,,---,0.04,VWS V14.00,2013-07-22 13:00:00,
2013-07-22 09:02:00,70.6,67.8,29.78,ESE,116,0.0,0.0,91,0.00,,---,0.04,VWS V14.00,2013-07-22 13:02:00,
2013-07-22 09:03:00,70.6,67.8,29.78,ESE,116,0.0,0.0,91,0.00,,---,0.04,VWS V14.00,2013-07-22 13:03:00,
2013-07-22 09:04:00,70.6,67.8,29.78,ESE,116,0.0,0.0,91,0.00,,---,0.04,VWS V14.00,2013-07-22 13:04:00,
2013-07-22 09:05:00,70.6,67.8,29.78,ESE,116,0.0,0.0,91,0.00,,---,0.04,VWS V14.00,2013-07-22 13:05:00,
2013-07-22 09:06:00,70.8,68.1,29.78,ESE,116,0.0,0.0,91,0.00,,---,0.04,VWS V14.00,2013-07-22 13:06:00,
2013-07-22 09:07:00,70.9,68.2,29.78,ESE,116,0.0,0.0,91,0.00,,---,0.04,VWS V14.00,2013-07-22 13:07:00,
2013-07-22 09:08:00,70.8,68.1,29.78,ESE,116,0.0,0.0,91,0.00,,---,0.04,VWS V14.00,2013-07-22 13:08:00,
2013-07-22 09:09:00,70.8,68.1,29.78,ESE,116,0.0,0.0,91,0.00,,---,0.04,VWS V14.00,2013-07-22 13:09:00,
2013-07-22 09:10:00,70.9,68.2,29.78,ESE,116,0.0,0.0,91,0.00,,---,0.04,VWS V14.00,2013-07-22 13:10:00,
2013-07-22 09:11:00,71.1,68.3,29.78,ESE,116,0.0,0.0,91,0.00,,---,0.04,VWS V14.00,2013-07-22 13:11:00,
2013-07-22 09:12:00,71.1,68.3,29.78,ESE,116,0.0,0.0,91,0.00,,---,0.04,VWS V14.00,2013-07-22 13:12:00,
2013-07-22 09:13:00,71.1,68.3,29.78,ESE,116,0.0,0.0,91,0.00,,---,0.04,VWS V14.00,2013-07-22 13:13:00,
2013-07-22 09:14:00,71.3,68.5,29.78,ESE,116,0.0,0.0,91,0.00,,---,0.04,VWS V14.00,2013-07-22 13:14:00,
2013-07-22 09:15:00,71.3,68.5,29.77,ESE,116,0.0,0.0,91,0.00,,---,0.04,VWS V14.00,2013-07-22 13:15:00,
2013-07-22 09:16:00,71.3,68.5,29.77,ESE,116,0.0,0.0,91,0.00,,---,0.04,VWS V14.00,2013-07-22 13:16:00,
2013-07-22 09:17:00,71.3,68.5,29.77,ESE,116,0.0,0.0,91,0.00,,---,0.04,VWS V14.00,2013-07-22 13:17:00,
2013-07-22 09:18:00,71.3,68.5,29.77,ESE,116,0.0,0.0,91,0.00,,---,0.04,VWS V14.00,2013-07-22 13:18:00,
2013-07-22 09:19:00,71.5,68.7,29.77,ESE,116,0.0,0.0,91,0.00,,---,0.04,VWS V14.00,2013-07-22 13:19:00,
2013-07-22 09:20:00,71.3,68.5,29.77,ESE,116,0.0,0.0,91,0.00,,---,0.04,VWS V14.00,2013-07-22 13:20:00,
2013-07-22 09:22:00,71.3,68.2,29.77,ESE,116,0.0,0.0,90,0.00,,---,0.04,VWS V14.00,2013-07-22 13:22:00,
2013-07-22 09:24:00,71.3,68.2,29.77,ESE,116,0.0,0.0,90,0.00,,---,0.04,VWS V14.00,2013-07-22 13:24:00,
2013-07-22 09:25:00,71.3,68.2,29.77,ESE,112,0.0,0.0,90,0.00,,---,0.04,VWS V14.00,2013-07-22 13:25:00,
2013-07-22 09:26:00,71.3,68.2,29.77,ESE,112,0.0,0.0,90,0.00,,---,0.04,VWS V14.00,2013-07-22 13:26:00,
2013-07-22 09:27:00,71.3,68.2,29.77,ESE,112,0.0,0.0,90,0.00,,---,0.04,VWS V14.00,2013-07-22 13:27:00,
2013-07-22 09:28:00,71.5,68.4,29.77,ESE,112,0.0,0.0,90,0.00,,---,0.04,VWS V14.00,2013-07-22 13:28:00,
2013-07-22 09:29:00,71.5,68.4,29.77,ESE,112,0.0,0.0,90,0.00,,---,0.04,VWS V14.00,2013-07-22 13:29:00,
2013-07-22 09:30:00,71.3,68.2,29.77,ESE,112,0.0,0.0,90,0.00,,---,0.04,VWS V14.00,2013-07-22 13:30:00,
2013-07-22 09:31:00,71.3,67.9,29.76,ESE,112,0.0,0.0,89,0.00,,---,0.04,VWS V14.00,2013-07-22 13:31:00,
2013-07-22 09:32:00,71.5,68.4,29.76,ESE,112,0.0,2.0,90,0.00,,---,0.04,VWS V14.00,2013-07-22 13:32:00,
2013-07-22 09:33:00,71.5,68.1,29.76,ESE,120,0.0,2.0,89,0.00,,---,0.04,VWS V14.00,2013-07-22 13:33:00,
2013-07-22 09:34:00,71.5,68.1,29.76,SE,124,0.0,2.0,89,0.00,,---,0.04,VWS V14.00,2013-07-22 13:34:00,
2013-07-22 09:35:00,71.5,68.1,29.76,ESE,103,0.0,2.0,89,0.00,,---,0.04,VWS V14.00,2013-07-22 13:35:00,
2013-07-22 09:36:00,71.5,68.1,29.76,SE,127,0.0,4.0,89,0.00,,---,0.04,VWS V14.00,2013-07-22 13:36:00,
2013-07-22 09:37:00,71.5,68.1,29.76,SE,127,0.0,4.0,89,0.00,,---,0.04,VWS V14.00,2013-07-22 13:37:00,
2013-07-22 09:38:00,71.5,68.1,29.76,SE,124,0.0,4.0,89,0.00,,---,0.04,VWS V14.00,2013-07-22 13:38:00,
2013-07-22 09:39:00,71.6,68.2,29.76,ESE,102,0.0,4.0,89,0.00,,---,0.04,VWS V14.00,2013-07-22 13:39:00,
2013-07-22 09:40:00,71.6,68.2,29.76,ESE,120,0.0,4.0,89,0.00,,---,0.04,VWS V14.00,2013-07-22 13:40:00,
2013-07-22 09:41:00,71.6,68.2,29.76,SE,130,0.0,4.0,89,0.00,,---,0.04,VWS V14.00,2013-07-22 13:41:00,
2013-07-22 09:43:00,71.6,68.2,29.76,ESE,120,0.0,7.0,89,0.00,,---,0.04,VWS V14.00,2013-07-22 13:43:00,
2013-07-22 09:44:00,71.6,67.9,29.76,SE,136,0.0,7.0,88,0.00,,---,0.04,VWS V14.00,2013-07-22 13:44:00,
2013-07-22 09:45:00,71.8,68.1,29.76,SE,136,0.0,7.0,88,0.00,,---,0.04,VWS V14.00,2013-07-22 13:45:00,
2013-07-22 09:46:00,71.8,68.1,29.76,SE,136,0.0,7.0,88,0.00,,---,0.04,VWS V14.00,2013-07-22 13:46:00,
2013-07-22 09:48:00,71.8,68.1,29.76,ESE,116,0.0,7.0,88,0.00,,---,0.04,VWS V14.00,2013-07-22 13:48:00,
2013-07-22 09:49:00,71.8,68.1,29.76,ESE,112,0.0,7.0,88,0.00,,---,0.04,VWS V14.00,2013-07-22 13:49:00,
2013-07-22 09:50:00,71.8,68.1,29.76,ESE,113,0.0,7.0,88,0.00,,---,0.04,VWS V14.00,2013-07-22 13:50:00,
2013-07-22 09:51:00,72.0,68.3,29.76,ESE,113,0.0,7.0,88,0.00,,---,0.04,VWS V14.00,2013-07-22 13:51:00,
2013-07-22 09:53:00,72.0,68.3,29.76,ESE,117,0.0,7.0,88,0.00,,---,0.04,VWS V14.00,2013-07-22 13:53:00,
2013-07-22 09:54:00,72.0,67.9,29.76,ESE,117,0.0,7.0,87,0.00,,---,0.04,VWS V14.00,2013-07-22 13:54:00,
2013-07-22 09:55:00,72.0,68.3,29.76,ESE,117,0.0,7.0,88,0.00,,---,0.04,VWS V14.00,2013-07-22 13:55:00,
2013-07-22 09:56:00,72.0,67.9,29.76,ESE,117,0.0,7.0,87,0.00,,---,0.04,VWS V14.00,2013-07-22 13:56:00,
2013-07-22 09:58:00,72.1,68.3,29.76,ESE,117,0.0,7.0,88,0.00,,---,0.04,VWS V14.00,2013-07-22 13:58:00,
2013-07-22 09:59:00,72.1,68.0,29.76,ESE,117,0.0,7.0,87,0.00,,---,0.04,VWS V14.00,2013-07-22 13:59:00,
2013-07-22 10:00:00,72.1,68.0,29.77,ESE,117,0.0,7.0,87,0.00,,---,0.04,VWS V14.00,2013-07-22 14:00:00,
2013-07-22 10:02:00,72.1,68.0,29.77,ESE,117,0.0,0.0,87,0.00,,---,0.04,VWS V14.00,2013-07-22 14:02:00,
2013-07-22 10:03:00,72.3,68.2,29.77,ESE,117,0.0,0.0,87,0.00,,---,0.04,VWS V14.00,2013-07-22 14:03:00,
2013-07-22 10:04:00,72.3,68.2,29.77,ESE,117,0.0,0.0,87,0.00,,---,0.04,VWS V14.00,2013-07-22 14:04:00,
2013-07-22 10:05:00,72.3,68.2,29.77,ESE,117,0.0,0.0,87,0.00,,---,0.04,VWS V14.00,2013-07-22 14:05:00,
2013-07-22 10:07:00,72.3,68.2,29.77,ESE,117,0.0,0.0,87,0.00,,---,0.04,VWS V14.00,2013-07-22 14:07:00,
2013-07-22 10:08:00,72.5,68.4,29.77,ESE,117,0.0,0.0,87,0.00,,---,0.04,VWS V14.00,2013-07-22 14:08:00,
2013-07-22 10:09:00,72.5,68.4,29.77,ESE,117,0.0,0.0,87,0.00,,---,0.04,VWS V14.00,2013-07-22 14:09:00,
2013-07-22 10:10:00,72.5,68.4,29.77,ESE,117,0.0,0.0,87,0.00,,---,0.04,VWS V14.00,2013-07-22 14:10:00,
2013-07-22 10:12:00,72.7,68.6,29.77,ESE,117,0.0,0.0,87,0.00,,---,0.04,VWS V14.00,2013-07-22 14:12:00,
2013-07-22 10:13:00,72.5,68.4,29.77,ESE,117,0.0,0.0,87,0.00,,---,0.04,VWS V14.00,2013-07-22 14:13:00,
2013-07-22 10:14:00,72.5,68.4,29.77,ESE,117,0.0,0.0,87,0.00,,---,0.04,VWS V14.00,2013-07-22 14:14:00,
2013-07-22 10:15:00,72.5,68.4,29.77,ESE,117,0.0,0.0,87,0.00,,---,0.04,VWS V14.00,2013-07-22 14:15:00,
2013-07-22 10:17:00,72.5,68.4,29.77,ESE,117,0.0,0.0,87,0.00,,---,0.04,VWS V14.00,2013-07-22 14:17:00,
2013-07-22 10:19:00,72.5,68.4,29.77,ESE,117,0.0,0.0,87,0.00,,---,0.04,VWS V14.00,2013-07-22 14:19:00,
2013-07-22 10:20:00,72.3,67.9,29.77,ESE,120,0.0,0.0,86,0.00,,---,0.04,VWS V14.00,2013-07-22 14:20:00,
2013-07-22 10:22:00,72.3,67.9,29.77,ESE,120,0.0,0.0,86,0.00,,---,0.04,VWS V14.00,2013-07-22 14:22:00,
2013-07-22 10:24:00,72.3,67.9,29.77,ESE,120,0.0,0.0,86,0.00,,---,0.04,VWS V14.00,2013-07-22 14:24:00,
2013-07-22 10:25:00,72.3,67.9,29.77,ESE,120,0.0,0.0,86,0.00,,---,0.04,VWS V14.00,2013-07-22 14:25:00,
2013-07-22 10:27:00,72.5,68.1,29.77,ESE,120,0.0,0.0,86,0.00,,---,0.04,VWS V14.00,2013-07-22 14:27:00,
2013-07-22 10:29:00,72.7,68.3,29.77,ESE,120,0.0,0.0,86,0.00,,---,0.04,VWS V14.00,2013-07-22 14:29:00,
2013-07-22 10:30:00,72.7,68.3,29.77,ESE,120,0.0,0.0,86,0.00,,---,0.04,VWS V14.00,2013-07-22 14:30:00,
2013-07-22 10:31:00,72.7,68.3,29.77,ESE,120,0.0,0.0,86,0.00,,---,0.04,VWS V14.00,2013-07-22 14:31:00,
2013-07-22 10:32:00,73.2,68.8,29.77,ESE,120,0.0,0.0,86,0.00,,---,0.04,VWS V14.00,2013-07-22 14:32:00,
2013-07-22 10:34:00,73.2,68.8,29.77,SE,127,0.0,0.0,86,0.00,,---,0.04,VWS V14.00,2013-07-22 14:34:00,
2013-07-22 10:35:00,73.2,68.8,29.77,ESE,120,2.0,6.0,86,0.00,,---,0.04,VWS V14.00,2013-07-22 14:35:00,
2013-07-22 10:36:00,73.2,68.4,29.77,ESE,120,0.0,6.0,85,0.00,,---,0.04,VWS V14.00,2013-07-22 14:36:00,
2013-07-22 10:37:00,73.3,68.5,29.77,ESE,109,0.0,6.0,85,0.00,,---,0.04,VWS V14.00,2013-07-22 14:37:00,
2013-07-22 10:39:00,73.5,68.7,29.77,ESE,119,0.0,6.0,85,0.00,,---,0.04,VWS V14.00,2013-07-22 14:39:00,
2013-07-22 10:40:00,73.5,68.4,29.77,ESE,120,0.0,6.0,84,0.00,,---,0.04,VWS V14.00,2013-07-22 14:40:00,
2013-07-22 10:41:00,73.5,68.7,29.77,SE,124,0.0,6.0,85,0.00,,---,0.04,VWS V14.00,2013-07-22 14:41:00,
2013-07-22 10:42:00,73.5,68.4,29.77,SE,124,0.0,6.0,84,0.00,,---,0.04,VWS V14.00,2013-07-22 14:42:00,
2013-07-22 10:44:00,74.0,69.2,29.77,SE,124,0.0,6.0,85,0.00,,---,0.04,VWS V14.00,2013-07-22 14:44:00,
2013-07-22 10:45:00,74.0,68.9,29.76,SE,124,0.0,6.0,84,0.00,,---,0.04,VWS V14.00,2013-07-22 14:45:00,
2013-07-22 10:46:00,74.0,68.9,29.76,SE,124,0.0,6.0,84,0.00,,---,0.04,VWS V14.00,2013-07-22 14:46:00,
2013-07-22 10:47:00,74.0,69.2,29.76,SSE,155,0.0,6.0,85,0.00,,---,0.04,VWS V14.00,2013-07-22 14:47:00,
2013-07-22 10:49:00,74.0,68.5,29.76,SE,140,0.0,6.0,83,0.00,,---,0.04,VWS V14.00,2013-07-22 14:49:00,
2013-07-22 10:50:00,74.0,68.5,29.76,ESE,120,0.0,6.0,83,0.00,,---,0.04,VWS V14.00,2013-07-22 14:50:00,
2013-07-22 10:51:00,74.0,68.5,29.76,SE,127,7.0,7.0,83,0.00,,---,0.04,VWS V14.00,2013-07-22 14:51:00,
2013-07-22 10:53:00,74.0,68.5,29.76,ESE,109,7.0,7.0,83,0.00,,---,0.04,VWS V14.00,2013-07-22 14:53:00,
2013-07-22 10:54:00,74.0,68.5,29.76,SE,133,0.0,9.0,83,0.00,,---,0.04,VWS V14.00,2013-07-22 14:54:00,
2013-07-22 10:55:00,74.0,68.5,29.76,ESE,109,0.0,9.0,83,0.00,,---,0.04,VWS V14.00,2013-07-22 14:55:00,
2013-07-22 10:56:00,74.0,68.5,29.76,ESE,109,0.0,9.0,83,0.00,,---,0.04,VWS V14.00,2013-07-22 14:56:00,
2013-07-22 10:58:00,74.0,68.2,29.76,SE,131,0.0,9.0,82,0.00,,---,0.04,VWS V14.00,2013-07-22 14:58:00,
2013-07-22 10:59:00,73.9,68.4,29.76,SE,127,0.0,9.0,83,0.00,,---,0.04,VWS V14.00,2013-07-22 14:59:00,
2013-07-22 11:00:00,73.9,68.1,29.76,SE,137,0.0,9.0,82,0.00,,---,0.04,VWS V14.00,2013-07-22 15:00:00,
2013-07-22 11:01:00,73.9,68.1,29.76,SE,130,1.0,9.0,82,0.00,,---,0.04,VWS V14.00,2013-07-22 15:01:00,
2013-07-22 11:03:00,73.7,67.9,29.76,SE,144,0.0,4.0,82,0.00,,---,0.04,VWS V14.00,2013-07-22 15:03:00,
2013-07-22 11:04:00,73.9,68.4,29.76,SE,134,0.0,7.0,83,0.00,,---,0.04,VWS V14.00,2013-07-22 15:04:00,
2013-07-22 11:06:00,73.9,68.1,29.76,SE,131,0.0,7.0,82,0.00,,---,0.04,VWS V14.00,2013-07-22 15:06:00,
2013-07-22 11:08:00,73.9,68.1,29.76,SE,131,1.0,7.0,82,0.00,,---,0.04,VWS V14.00,2013-07-22 15:08:00,
2013-07-22 11:10:00,73.9,67.7,29.76,SE,127,0.0,7.0,81,0.00,,---,0.04,VWS V14.00,2013-07-22 15:10:00,
2013-07-22 11:11:00,73.9,67.7,29.76,SE,131,0.0,7.0,81,0.00,,---,0.04,VWS V14.00,2013-07-22 15:11:00,
2013-07-22 11:12:00,73.9,67.7,29.76,SE,145,0.0,7.0,81,0.00,,---,0.04,VWS V14.00,2013-07-22 15:12:00,
2013-07-22 11:13:00,73.9,67.7,29.76,SE,134,1.0,7.0,81,0.00,,---,0.04,VWS V14.00,2013-07-22 15:13:00,
2013-07-22 11:15:00,74.0,68.2,29.77,SE,133,0.0,7.0,82,0.00,,---,0.04,VWS V14.00,2013-07-22 15:15:00,
2013-07-22 11:16:00,74.0,67.8,29.77,ESE,123,2.0,7.0,81,0.00,,---,0.04,VWS V14.00,2013-07-22 15:16:00,
2013-07-22 11:17:00,74.0,67.8,29.77,ESE,113,0.0,7.0,81,0.00,,---,0.04,VWS V14.00,2013-07-22 15:17:00,
2013-07-22 11:19:00,74.2,68.0,29.77,SE,131,0.0,7.0,81,0.00,,---,0.04,VWS V14.00,2013-07-22 15:19:00,
2013-07-22 11:20:00,74.2,67.6,29.77,SE,134,6.0,8.0,80,0.00,,---,0.04,VWS V14.00,2013-07-22 15:20:00,
2013-07-22 11:21:00,74.0,67.4,29.77,ESE,120,1.0,8.0,80,0.00,,---,0.04,VWS V14.00,2013-07-22 15:21:00,
2013-07-22 11:22:00,74.0,67.1,29.77,ESE,109,0.0,8.0,79,0.00,,---,0.04,VWS V14.00,2013-07-22 15:22:00,
2013-07-22 11:24:00,74.2,67.6,29.77,East,92,4.0,8.0,80,0.00,,---,0.04,VWS V14.00,2013-07-22 15:24:00,
2013-07-22 11:25:00,74.2,67.3,29.77,SE,131,0.0,8.0,79,0.00,,---,0.04,VWS V14.00,2013-07-22 15:25:00,
2013-07-22 11:26:00,74.2,67.3,29.77,SE,131,0.0,8.0,79,0.00,,---,0.04,VWS V14.00,2013-07-22 15:26:00,
2013-07-22 11:27:00,74.4,67.8,29.77,SE,140,0.0,8.0,80,0.00,,---,0.04,VWS V14.00,2013-07-22 15:27:00,
2013-07-22 11:29:00,74.6,67.7,29.77,ESE,102,0.0,8.0,79,0.00,,---,0.04,VWS V14.00,2013-07-22 15:29:00,
2013-07-22 11:31:00,74.6,67.7,29.77,ESE,102,0.0,8.0,79,0.00,,---,0.04,VWS V14.00,2013-07-22 15:31:00,
2013-07-22 11:32:00,74.6,68.0,29.77,ESE,102,0.0,8.0,80,0.00,,---,0.04,VWS V14.00,2013-07-22 15:32:00,
2013-07-22 11:33:00,74.6,68.0,29.77,ESE,103,0.0,8.0,80,0.00,,---,0.04,VWS V14.00,2013-07-22 15:33:00,
2013-07-22 11:34:00,74.4,67.8,29.77,ESE,103,0.0,8.0,80,0.00,,---,0.04,VWS V14.00,2013-07-22 15:34:00,
2013-07-22 11:36:00,74.4,67.8,29.77,South,184,0.0,8.0,80,0.00,,---,0.04,VWS V14.00,2013-07-22 15:36:00,
2013-07-22 11:37:00,74.2,67.6,29.77,South,188,0.0,8.0,80,0.00,,---,0.04,VWS V14.00,2013-07-22 15:37:00,
2013-07-22 11:38:00,74.0,67.4,29.77,SSE,161,4.0,8.0,80,0.00,,---,0.04,VWS V14.00,2013-07-22 15:38:00,
2013-07-22 11:39:00,73.9,67.0,29.77,SSE,151,0.0,8.0,79,0.00,,---,0.04,VWS V14.00,2013-07-22 15:39:00,
2013-07-22 11:41:00,73.9,67.0,29.77,South,174,0.0,8.0,79,0.00,,---,0.04,VWS V14.00,2013-07-22 15:41:00,
2013-07-22 11:42:00,73.7,67.2,29.77,South,174,0.0,8.0,80,0.00,,---,0.04,VWS V14.00,2013-07-22 15:42:00,
2013-07-22 11:43:00,73.7,67.2,29.77,South,174,0.0,8.0,80,0.00,,---,0.04,VWS V14.00,2013-07-22 15:43:00,
2013-07-22 11:44:00,73.7,67.2,29.77,SE,138,4.0,8.0,80,0.00,,---,0.04,VWS V14.00,2013-07-22 15:44:00,
2013-07-22 11:46:00,73.5,66.6,29.77,SE,133,1.0,8.0,79,0.00,,---,0.04,VWS V14.00,2013-07-22 15:46:00,
2013-07-22 11:47:00,73.5,66.6,29.77,SSE,148,0.0,8.0,79,0.00,,---,0.04,VWS V14.00,2013-07-22 15:47:00,
2013-07-22 11:48:00,73.5,66.6,29.77,SSE,150,7.0,8.0,79,0.00,,---,0.04,VWS V14.00,2013-07-22 15:48:00,
2013-07-22 11:49:00,73.3,66.4,29.77,ESE,120,1.0,8.0,79,0.00,,---,0.04,VWS V14.00,2013-07-22 15:49:00,
2013-07-22 11:51:00,73.5,66.6,29.77,SE,144,0.0,8.0,79,0.00,,---,0.04,VWS V14.00,2013-07-22 15:51:00,
2013-07-22 11:52:00,73.5,66.6,29.77,SE,144,0.0,8.0,79,0.00,,---,0.04,VWS V14.00,2013-07-22 15:52:00,
2013-07-22 11:53:00,73.5,67.0,29.77,SE,144,0.0,8.0,80,0.00,,---,0.04,VWS V14.00,2013-07-22 15:53:00,
2013-07-22 11:54:00,73.5,67.3,29.77,SE,141,0.0,8.0,81,0.00,,---,0.04,VWS V14.00,2013-07-22 15:54:00,
2013-07-22 11:56:00,73.5,67.0,29.77,SE,136,0.0,8.0,80,0.00,,---,0.04,VWS V14.00,2013-07-22 15:56:00,
2013-07-22 11:57:00,73.3,66.8,29.77,SE,137,0.0,8.0,80,0.00,,---,0.04,VWS V14.00,2013-07-22 15:57:00,
2013-07-22 11:58:00,73.3,66.8,29.77,SSE,162,0.0,8.0,80,0.00,,---,0.04,VWS V14.00,2013-07-22 15:58:00,
2013-07-22 12:00:00,73.2,66.7,29.77,SSE,160,0.0,8.0,80,0.00,,---,0.04,VWS V14.00,2013-07-22 16:00:00,
2013-07-22 12:02:00,73.2,66.7,29.77,SSE,154,0.0,2.0,80,0.00,,---,0.04,VWS V14.00,2013-07-22 16:02:00,
2013-07-22 12:03:00,73.2,66.3,29.77,SE,140,0.0,2.0,79,0.00,,---,0.04,VWS V14.00,2013-07-22 16:03:00,
2013-07-22 12:05:00,73.2,66.3,29.77,SE,144,0.0,7.0,79,0.00,,---,0.04,VWS V14.00,2013-07-22 16:05:00,
2013-07-22 12:07:00,73.0,66.1,29.77,SSE,154,0.0,7.0,79,0.00,,---,0.04,VWS V14.00,2013-07-22 16:07:00,
2013-07-22 12:08:00,73.0,65.7,29.77,SE,131,0.0,7.0,78,0.00,,---,0.04,VWS V14.00,2013-07-22 16:08:00,
2013-07-22 12:10:00,73.0,66.1,29.77,SE,136,0.0,7.0,79,0.00,,---,0.04,VWS V14.00,2013-07-22 16:10:00,
2013-07-22 12:12:00,73.0,65.7,29.77,SSE,151,0.0,7.0,78,0.00,,---,0.04,VWS V14.00,2013-07-22 16:12:00,
2013-07-22 12:13:00,73.0,66.1,29.77,SSE,151,0.0,7.0,79,0.00,,---,0.04,VWS V14.00,2013-07-22 16:13:00,
2013-07-22 12:15:00,73.0,66.1,29.77,South,174,0.0,7.0,79,0.00,,---,0.04,VWS V14.00,2013-07-22 16:15:00,
2013-07-22 12:17:00,73.0,65.7,29.77,SE,145,0.0,7.0,78,0.00,,---,0.04,VWS V14.00,2013-07-22 16:17:00,
2013-07-22 12:18:00,73.0,65.7,29.77,SE,145,0.0,7.0,78,0.00,,---,0.04,VWS V14.00,2013-07-22 16:18:00,
2013-07-22 12:20:00,73.2,66.3,29.77,SE,130,0.0,7.0,79,0.00,,---,0.04,VWS V14.00,2013-07-22 16:20:00,
2013-07-22 12:22:00,73.2,66.3,29.77,SE,130,0.0,7.0,79,0.00,,---,0.04,VWS V14.00,2013-07-22 16:22:00,
2013-07-22 12:23:00,73.2,65.9,29.77,SE,130,0.0,7.0,78,0.00,,---,0.04,VWS V14.00,2013-07-22 16:23:00,
2013-07-22 12:24:00,73.3,66.4,29.77,SE,127,0.0,7.0,79,0.00,,---,0.04,VWS V14.00,2013-07-22 16:24:00,
2013-07-22 12:26:00,73.3,66.4,29.77,SE,130,0.0,7.0,79,0.00,,---,0.04,VWS V14.00,2013-07-22 16:26:00,
2013-07-22 12:27:00,73.3,66.0,29.77,SE,130,0.0,7.0,78,0.00,,---,0.04,VWS V14.00,2013-07-22 16:27:00,
2013-07-22 12:28:00,73.5,66.6,29.77,SE,130,0.0,7.0,79,0.00,,---,0.04,VWS V14.00,2013-07-22 16:28:00,
2013-07-22 12:29:00,73.7,66.8,29.77,ESE,116,0.0,7.0,79,0.00,,---,0.04,VWS V14.00,2013-07-22 16:29:00,
2013-07-22 12:31:00,73.9,67.3,29.77,ESE,116,0.0,7.0,80,0.00,,---,0.04,VWS V14.00,2013-07-22 16:31:00,
2013-07-22 12:32:00,74.0,67.1,29.77,ESE,116,0.0,7.0,79,0.00,,---,0.04,VWS V14.00,2013-07-22 16:32:00,
2013-07-22 12:33:00,74.0,67.1,29.77,ESE,116,0.0,7.0,79,0.00,,---,0.04,VWS V14.00,2013-07-22 16:33:00,
2013-07-22 12:34:00,74.0,67.1,29.77,ESE,116,0.0,7.0,79,0.00,,---,0.04,VWS V14.00,2013-07-22 16:34:00,
2013-07-22 12:36:00,73.9,66.2,29.77,ESE,116,0.0,7.0,77,0.00,,---,0.04,VWS V14.00,2013-07-22 16:36:00,
2013-07-22 12:37:00,74.0,66.3,29.77,ESE,116,0.0,7.0,77,0.00,,---,0.04,VWS V14.00,2013-07-22 16:37:00,
2013-07-22 12:38:00,74.2,66.9,29.77,ESE,116,0.0,7.0,78,0.00,,---,0.04,VWS V14.00,2013-07-22 16:38:00,
2013-07-22 12:39:00,74.4,67.5,29.77,ESE,117,0.0,7.0,79,0.00,,---,0.04,VWS V14.00,2013-07-22 16:39:00,
2013-07-22 12:41:00,74.4,66.3,29.77,ESE,117,0.0,7.0,76,0.00,,---,0.04,VWS V14.00,2013-07-22 16:41:00,
2013-07-22 12:42:00,74.4,66.3,29.77,ESE,119,0.0,7.0,76,0.00,,---,0.04,VWS V14.00,2013-07-22 16:42:00,
2013-07-22 12:43:00,74.4,65.6,29.77,ESE,120,0.0,7.0,74,0.00,,---,0.04,VWS V14.00,2013-07-22 16:43:00,
2013-07-22 12:44:00,74.4,66.0,29.77,ESE,120,0.0,7.0,75,0.00,,---,0.04,VWS V14.00,2013-07-22 16:44:00,
2013-07-22 12:46:00,74.6,66.2,29.77,ESE,109,0.0,7.0,75,0.00,,---,0.04,VWS V14.00,2013-07-22 16:46:00,
2013-07-22 12:48:00,74.4,65.2,29.77,SE,130,0.0,7.0,73,0.00,,---,0.04,VWS V14.00,2013-07-22 16:48:00,
2013-07-22 12:49:00,74.2,65.0,29.77,SE,131,0.0,7.0,73,0.00,,---,0.04,VWS V14.00,2013-07-22 16:49:00,
2013-07-22 12:50:00,74.2,64.6,29.77,SE,131,0.0,7.0,72,0.00,,---,0.04,VWS V14.00,2013-07-22 16:50:00,
2013-07-22 12:51:00,74.2,65.0,29.77,SE,130,0.0,7.0,73,0.00,,---,0.04,VWS V14.00,2013-07-22 16:51:00,
2013-07-22 12:53:00,74.2,65.0,29.77,SE,130,0.0,7.0,73,0.00,,---,0.04,VWS V14.00,2013-07-22 16:53:00,
2013-07-22 12:54:00,74.4,65.6,29.77,SE,130,0.0,7.0,74,0.00,,---,0.04,VWS V14.00,2013-07-22 16:54:00,
2013-07-22 12:55:00,74.2,65.0,29.77,ESE,120,6.0,7.0,73,0.00,,---,0.04,VWS V14.00,2013-07-22 16:55:00,
2013-07-22 12:56:00,74.4,65.6,29.77,SSE,157,0.0,8.0,74,0.00,,---,0.04,VWS V14.00,2013-07-22 16:56:00,
2013-07-22 12:58:00,74.2,65.0,29.77,East,89,0.0,8.0,73,0.00,,---,0.04,VWS V14.00,2013-07-22 16:58:00,
2013-07-22 12:59:00,74.4,65.6,29.77,East,93,0.0,8.0,74,0.00,,---,0.04,VWS V14.00,2013-07-22 16:59:00,
2013-07-22 13:00:00,74.4,66.0,29.77,East,89,2.0,8.0,75,0.00,,---,0.04,VWS V14.00,2013-07-22 17:00:00,
2013-07-22 13:01:00,74.4,65.6,29.77,East,86,0.0,0.0,74,0.00,,---,0.04,VWS V14.00,2013-07-22 17:01:00,
2013-07-22 13:03:00,74.4,66.0,29.77,SE,131,0.0,0.0,75,0.00,,---,0.04,VWS V14.00,2013-07-22 17:03:00,
2013-07-22 13:04:00,74.4,65.6,29.77,ESE,117,1.0,4.0,74,0.00,,---,0.04,VWS V14.00,2013-07-22 17:04:00,
2013-07-22 13:05:00,74.4,66.0,29.77,ESE,109,0.0,6.0,75,0.00,,---,0.04,VWS V14.00,2013-07-22 17:05:00,
2013-07-22 13:07:00,74.4,65.6,29.77,ESE,113,0.0,6.0,74,0.00,,---,0.04,VWS V14.00,2013-07-22 17:07:00,
2013-07-22 13:08:00,74.2,65.4,29.77,ESE,113,0.0,6.0,74,0.00,,---,0.04,VWS V14.00,2013-07-22 17:08:00,
2013-07-22 13:09:00,74.2,65.4,29.77,ESE,113,0.0,6.0,74,0.00,,---,0.04,VWS V14.00,2013-07-22 17:09:00,
2013-07-22 13:10:00,74.0,65.2,29.77,SE,126,0.0,6.0,74,0.00,,---,0.04,VWS V14.00,2013-07-22 17:10:00,
2013-07-22 13:12:00,74.0,65.6,29.77,ESE,120,0.0,6.0,75,0.00,,---,0.04,VWS V14.00,2013-07-22 17:12:00,
2013-07-22 13:14:00,74.2,65.8,29.77,ESE,120,0.0,6.0,75,0.00,,---,0.04,VWS V14.00,2013-07-22 17:14:00,
2013-07-22 13:16:00,74.4,66.0,29.77,ESE,112,0.0,6.0,75,0.00,,---,0.04,VWS V14.00,2013-07-22 17:16:00,
2013-07-22 13:17:00,74.4,66.0,29.77,ESE,116,0.0,6.0,75,0.00,,---,0.04,VWS V14.00,2013-07-22 17:17:00,
2013-07-22 13:19:00,74.4,65.6,29.77,SE,133,0.0,6.0,74,0.00,,---,0.04,VWS V14.00,2013-07-22 17:19:00,
2013-07-22 13:20:00,74.2,65.4,29.77,SE,133,0.0,6.0,74,0.00,,---,0.04,VWS V14.00,2013-07-22 17:20:00,
2013-07-22 13:21:00,74.0,65.2,29.77,SE,131,0.0,6.0,74,0.00,,---,0.04,VWS V14.00,2013-07-22 17:21:00,
2013-07-22 13:22:00,74.0,65.2,29.77,ESE,103,0.0,6.0,74,0.00,,---,0.04,VWS V14.00,2013-07-22 17:22:00,
2013-07-22 13:24:00,74.4,66.0,29.77,ESE,119,0.0,6.0,75,0.00,,---,0.04,VWS V14.00,2013-07-22 17:24:00,
2013-07-22 13:25:00,74.6,66.2,29.77,ESE,119,0.0,6.0,75,0.00,,---,0.04,VWS V14.00,2013-07-22 17:25:00,
2013-07-22 13:26:00,74.4,65.6,29.77,ESE,119,0.0,6.0,74,0.00,,---,0.04,VWS V14.00,2013-07-22 17:26:00,
2013-07-22 13:28:00,74.6,66.2,29.77,SE,127,0.0,6.0,75,0.00,,---,0.04,VWS V14.00,2013-07-22 17:28:00,
2013-07-22 13:29:00,74.7,65.9,29.77,SE,127,0.0,7.0,74,0.00,,---,0.04,VWS V14.00,2013-07-22 17:29:00,
2013-07-22 13:30:00,74.7,65.9,29.77,SE,127,0.0,7.0,74,0.00,,---,0.04,VWS V14.00,2013-07-22 17:30:00,
2013-07-22 13:31:00,74.9,65.7,29.77,ESE,123,0.0,7.0,73,0.00,,---,0.04,VWS V14.00,2013-07-22 17:31:00,
2013-07-22 13:33:00,75.1,65.9,29.77,ESE,116,0.0,7.0,73,0.00,,---,0.04,VWS V14.00,2013-07-22 17:33:00,
2013-07-22 13:35:00,75.3,66.4,29.77,ESE,103,0.0,7.0,74,0.00,,---,0.04,VWS V14.00,2013-07-22 17:35:00,
2013-07-22 13:36:00,75.1,66.2,29.77,SE,126,0.0,7.0,74,0.00,,---,0.04,VWS V14.00,2013-07-22 17:36:00,
2013-07-22 13:38:00,74.7,65.1,29.77,SE,126,0.0,7.0,72,0.00,,---,0.04,VWS V14.00,2013-07-22 17:38:00,
2013-07-22 13:40:00,74.6,65.8,29.77,SE,126,0.0,7.0,74,0.00,,---,0.04,VWS V14.00,2013-07-22 17:40:00,
2013-07-22 13:41:00,74.7,65.9,29.77,SE,126,0.0,7.0,74,0.00,,---,0.04,VWS V14.00,2013-07-22 17:41:00,
2013-07-22 13:43:00,74.9,66.1,29.77,SE,126,0.0,7.0,74,0.00,,---,0.04,VWS V14.00,2013-07-22 17:43:00,
2013-07-22 13:45:00,74.9,65.7,29.76,SE,127,0.0,7.0,73,0.00,,---,0.04,VWS V14.00,2013-07-22 17:45:00,
2013-07-22 13:46:00,74.7,65.5,29.76,SE,143,0.0,7.0,73,0.00,,---,0.04,VWS V14.00,2013-07-22 17:46:00,
2013-07-22 13:48:00,74.7,65.9,29.76,South,171,0.0,7.0,74,0.00,,---,0.04,VWS V14.00,2013-07-22 17:48:00,
2013-07-22 13:51:00,74.4,65.2,29.76,SSE,154,0.0,7.0,73,0.00,,---,0.04,VWS V14.00,2013-07-22 17:51:00,
2013-07-22 13:54:00,74.6,66.2,29.76,SE,138,4.0,7.0,75,0.00,,---,0.04,VWS V14.00,2013-07-22 17:54:00,
2013-07-22 13:56:00,74.7,65.9,29.76,SE,137,0.0,7.0,74,0.00,,---,0.04,VWS V14.00,2013-07-22 17:56:00,
2013-07-22 14:01:00,74.9,65.7,29.76,SE,138,0.0,7.0,73,0.00,,---,0.04,VWS V14.00,2013-07-22 18:01:00,
2013-07-22 14:03:00,74.9,66.1,29.76,SE,138,0.0,0.0,74,0.00,,---,0.04,VWS V14.00,2013-07-22 18:03:00,
2013-07-22 14:06:00,74.7,66.3,29.76,SE,138,0.0,0.0,75,0.00,,---,0.04,VWS V14.00,2013-07-22 18:06:00,
2013-07-22 14:07:00,75.1,67.0,29.76,SE,138,0.0,0.0,76,0.00,,---,0.04,VWS V14.00,2013-07-22 18:07:00,
2013-07-22 14:08:00,74.9,66.8,29.76,SE,138,0.0,0.0,76,0.00,,---,0.04,VWS V14.00,2013-07-22 18:08:00,
2013-07-22 14:12:00,74.9,66.1,29.76,SE,138,0.0,0.0,74,0.00,,---,0.04,VWS V14.00,2013-07-22 18:12:00,
2013-07-22 14:13:00,74.9,66.1,29.76,SE,138,0.0,0.0,74,0.00,,---,0.04,VWS V14.00,2013-07-22 18:13:00,
2013-07-22 14:17:00,75.1,65.5,29.75,SE,144,0.0,2.0,72,0.00,,---,0.04,VWS V14.00,2013-07-22 18:17:00,
2013-07-22 14:18:00,75.1,65.5,29.75,SSE,148,0.0,2.0,72,0.00,,---,0.04,VWS V14.00,2013-07-22 18:18:00,
2013-07-22 14:19:00,75.1,65.5,29.75,SE,134,0.0,2.0,72,0.00,,---,0.04,VWS V14.00,2013-07-22 18:19:00,
2013-07-22 14:22:00,75.1,65.5,29.75,SE,134,0.0,2.0,72,0.00,,---,0.04,VWS V14.00,2013-07-22 18:22:00,
2013-07-22 14:23:00,75.3,65.7,29.75,South,176,0.0,2.0,72,0.00,,---,0.04,VWS V14.00,2013-07-22 18:23:00,
2013-07-22 14:25:00,74.9,65.7,29.75,South,181,0.0,2.0,73,0.00,,---,0.04,VWS V14.00,2013-07-22 18:25:00,
2013-07-22 14:27:00,75.1,66.2,29.75,SSW,199,0.0,2.0,74,0.00,,---,0.04,VWS V14.00,2013-07-22 18:27:00,
2013-07-22 14:28:00,74.9,66.1,29.75,South,176,0.0,2.0,74,0.00,,---,0.04,VWS V14.00,2013-07-22 18:28:00,
2013-07-22 14:30:00,75.4,65.3,29.74,South,174,0.0,2.0,71,0.00,,---,0.04,VWS V14.00,2013-07-22 18:30:00,
2013-07-22 14:33:00,75.6,66.3,29.74,South,174,0.0,2.0,73,0.00,,---,0.04,VWS V14.00,2013-07-22 18:33:00,
2013-07-22 14:35:00,76.0,66.7,29.74,SSE,168,0.0,2.0,73,0.00,,---,0.04,VWS V14.00,2013-07-22 18:35:00,
2013-07-22 14:36:00,76.1,66.8,29.74,South,174,0.0,2.0,73,0.00,,---,0.04,VWS V14.00,2013-07-22 18:36:00,
2013-07-22 14:38:00,76.1,66.0,29.74,SSE,155,0.0,2.0,71,0.00,,---,0.04,VWS V14.00,2013-07-22 18:38:00,
2013-07-22 14:41:00,76.3,66.2,29.74,SSE,158,0.0,2.0,71,0.00,,---,0.04,VWS V14.00,2013-07-22 18:41:00,
2013-07-22 14:43:00,76.7,68.2,29.74,SSW,206,0.0,6.0,75,0.00,,---,0.04,VWS V14.00,2013-07-22 18:43:00,
2013-07-22 14:47:00,77.2,67.9,29.74,SE,140,0.0,6.0,73,0.00,,---,0.04,VWS V14.00,2013-07-22 18:47:00,
2013-07-22 14:48:00,76.7,66.2,29.74,SSW,195,0.0,6.0,70,0.00,,---,0.04,VWS V14.00,2013-07-22 18:48:00,
2013-07-22 14:49:00,77.2,66.7,29.74,SE,141,0.0,6.0,70,0.00,,---,0.04,VWS V14.00,2013-07-22 18:49:00,
2013-07-22 14:52:00,78.3,67.3,29.74,SE,134,0.0,6.0,69,0.00,,---,0.04,VWS V14.00,2013-07-22 18:52:00,
2013-07-22 14:53:00,78.3,66.9,29.74,SE,130,0.0,6.0,68,0.00,,---,0.04,VWS V14.00,2013-07-22 18:53:00,
2013-07-22 14:55:00,78.6,67.2,29.74,East,88,0.0,6.0,68,0.00,,---,0.04,VWS V14.00,2013-07-22 18:55:00,
2013-07-22 14:57:00,79.0,67.6,29.74,SSE,148,0.0,6.0,68,0.00,,---,0.04,VWS V14.00,2013-07-22 18:57:00,
2013-07-22 14:58:00,79.0,66.2,29.74,SE,143,0.0,6.0,65,0.00,,---,0.04,VWS V14.00,2013-07-22 18:58:00,
2013-07-22 15:00:00,78.8,67.4,29.74,SE,141,0.0,6.0,68,0.00,,---,0.04,VWS V14.00,2013-07-22 19:00:00,
2013-07-22 15:03:00,79.0,66.7,29.73,ESE,113,0.0,0.0,66,0.00,,---,0.04,VWS V14.00,2013-07-22 19:03:00,
2013-07-22 15:04:00,79.0,66.2,29.73,SE,130,2.0,7.0,65,0.00,,---,0.04,VWS V14.00,2013-07-22 19:04:00,
2013-07-22 15:05:00,79.2,66.4,29.73,ESE,120,0.0,7.0,65,0.00,,---,0.04,VWS V14.00,2013-07-22 19:05:00,
2013-07-22 15:08:00,79.2,66.0,29.73,ESE,120,0.0,7.0,64,0.00,,---,0.04,VWS V14.00,2013-07-22 19:08:00,
2013-07-22 15:10:00,79.2,66.0,29.73,SE,144,0.0,7.0,64,0.00,,---,0.04,VWS V14.00,2013-07-22 19:10:00,
2013-07-22 15:13:00,78.6,65.9,29.73,ESE,120,0.0,7.0,65,0.00,,---,0.04,VWS V14.00,2013-07-22 19:13:00,
2013-07-22 15:15:00,78.6,66.7,29.73,SE,124,0.0,7.0,67,0.00,,---,0.04,VWS V14.00,2013-07-22 19:15:00,
2013-07-22 15:16:00,78.5,66.6,29.73,ESE,120,0.0,7.0,67,0.00,,---,0.04,VWS V14.00,2013-07-22 19:16:00,
2013-07-22 15:17:00,78.1,65.4,29.73,ESE,120,0.0,7.0,65,0.00,,---,0.04,VWS V14.00,2013-07-22 19:17:00,
2013-07-22 15:18:00,77.9,66.1,29.73,East,99,1.0,7.0,67,0.00,,---,0.04,VWS V14.00,2013-07-22 19:18:00,
2013-07-22 15:20:00,77.7,65.9,29.73,SE,130,0.0,7.0,67,0.00,,---,0.04,VWS V14.00,2013-07-22 19:20:00,
2013-07-22 15:21:00,77.7,65.4,29.73,SE,131,0.0,7.0,66,0.00,,---,0.04,VWS V14.00,2013-07-22 19:21:00,
2013-07-22 15:22:00,77.7,65.0,29.73,SE,140,1.0,7.0,65,0.00,,---,0.04,VWS V14.00,2013-07-22 19:22:00,
2013-07-22 15:24:00,77.7,65.0,29.73,SSE,154,0.0,7.0,65,0.00,,---,0.04,VWS V14.00,2013-07-22 19:24:00,
2013-07-22 15:26:00,77.7,65.4,29.73,SE,133,1.0,7.0,66,0.00,,---,0.04,VWS V14.00,2013-07-22 19:26:00,
2013-07-22 15:27:00,77.9,66.1,29.73,SE,126,6.0,7.0,67,0.00,,---,0.04,VWS V14.00,2013-07-22 19:27:00,
2013-07-22 15:29:00,78.8,67.4,29.73,SE,126,0.0,7.0,68,0.00,,---,0.04,VWS V14.00,2013-07-22 19:29:00,
2013-07-22 15:31:00,79.4,66.6,29.73,ESE,120,4.0,7.0,65,0.00,,---,0.04,VWS V14.00,2013-07-22 19:31:00,
2013-07-22 15:32:00,79.6,65.9,29.73,SE,131,0.0,7.0,63,0.00,,---,0.04,VWS V14.00,2013-07-22 19:32:00,
2013-07-22 15:35:00,79.6,66.8,29.73,East,89,0.0,7.0,65,0.00,,---,0.04,VWS V14.00,2013-07-22 19:35:00,
2013-07-22 15:36:00,79.8,67.4,29.73,ESE,110,0.0,7.0,66,0.00,,---,0.04,VWS V14.00,2013-07-22 19:36:00,
2013-07-22 15:37:00,79.8,65.6,29.73,SE,134,0.0,7.0,62,0.00,,---,0.04,VWS V14.00,2013-07-22 19:37:00,
2013-07-22 15:41:00,79.4,67.1,29.73,SE,134,0.0,7.0,66,0.00,,---,0.04,VWS V14.00,2013-07-22 19:41:00,
2013-07-22 15:44:00,79.4,65.3,29.73,SE,134,0.0,7.0,62,0.00,,---,0.04,VWS V14.00,2013-07-22 19:44:00,
2013-07-22 15:46:00,79.6,67.7,29.73,SE,134,0.0,7.0,67,0.00,,---,0.04,VWS V14.00,2013-07-22 19:46:00,
2013-07-22 15:47:00,79.8,66.6,29.73,SE,134,0.0,7.0,64,0.00,,---,0.04,VWS V14.00,2013-07-22 19:47:00,
2013-07-22 15:49:00,80.1,67.7,29.73,SE,134,0.0,7.0,66,0.00,,---,0.04,VWS V14.00,2013-07-22 19:49:00,
2013-07-22 15:51:00,79.9,67.5,29.73,SE,138,0.0,7.0,66,0.00,,---,0.04,VWS V14.00,2013-07-22 19:51:00,
2013-07-22 15:52:00,79.9,67.5,29.73,SE,138,0.0,7.0,66,0.00,,---,0.04,VWS V14.00,2013-07-22 19:52:00,
2013-07-22 15:54:00,79.6,65.4,29.73,SE,131,0.0,7.0,62,0.00,,---,0.04,VWS V14.00,2013-07-22 19:54:00,
2013-07-22 15:56:00,79.8,67.0,29.73,ESE,113,0.0,7.0,65,0.00,,---,0.04,VWS V14.00,2013-07-22 19:56:00,
2013-07-22 15:57:00,79.8,67.0,29.73,ESE,113,0.0,7.0,65,0.00,,---,0.04,VWS V14.00,2013-07-22 19:57:00,
2013-07-22 16:01:00,79.6,65.9,29.72,ESE,110,0.0,7.0,63,0.00,,---,0.04,VWS V14.00,2013-07-22 20:01:00,
2013-07-22 16:02:00,79.6,65.9,29.72,ESE,110,0.0,0.0,63,0.00,,---,0.04,VWS V14.00,2013-07-22 20:02:00,
2013-07-22 16:03:00,79.6,67.2,29.72,ESE,110,0.0,0.0,66,0.00,,---,0.04,VWS V14.00,2013-07-22 20:03:00,
2013-07-22 16:07:00,79.4,66.2,29.72,SE,138,0.0,0.0,64,0.00,,---,0.04,VWS V14.00,2013-07-22 20:07:00,
2013-07-22 16:08:00,79.6,66.8,29.72,SE,124,0.0,0.0,65,0.00,,---,0.04,VWS V14.00,2013-07-22 20:08:00,
2013-07-22 16:12:00,79.2,66.4,29.72,SE,126,0.0,9.0,65,0.00,,---,0.04,VWS V14.00,2013-07-22 20:12:00,
2013-07-22 16:14:00,79.0,66.7,29.72,SE,130,0.0,9.0,66,0.00,,---,0.04,VWS V14.00,2013-07-22 20:14:00,
2013-07-22 16:16:00,78.6,65.9,29.72,SE,130,0.0,9.0,65,0.00,,---,0.04,VWS V14.00,2013-07-22 20:16:00,
2013-07-22 16:17:00,78.5,65.8,29.72,SE,130,0.0,9.0,65,0.00,,---,0.04,VWS V14.00,2013-07-22 20:17:00,
2013-07-22 16:21:00,78.1,65.4,29.72,SSE,150,0.0,9.0,65,0.00,,---,0.04,VWS V14.00,2013-07-22 20:21:00,
2013-07-22 16:22:00,78.1,65.4,29.72,SSE,150,0.0,9.0,65,0.00,,---,0.04,VWS V14.00,2013-07-22 20:22:00,
2013-07-22 16:27:00,77.2,64.5,29.72,ESE,116,0.0,9.0,65,0.00,,---,0.04,VWS V14.00,2013-07-22 20:27:00,
2013-07-22 16:32:00,77.2,65.8,29.72,South,186,0.0,9.0,68,0.00,,---,0.04,VWS V14.00,2013-07-22 20:32:00,
2013-07-22 16:37:00,77.0,65.2,29.72,South,178,0.0,9.0,67,0.00,,---,0.04,VWS V14.00,2013-07-22 20:37:00,
2013-07-22 16:42:00,77.6,65.3,29.72,South,178,0.0,9.0,66,0.00,,---,0.04,VWS V14.00,2013-07-22 20:42:00,
2013-07-22 16:43:00,77.6,65.8,29.72,South,178,0.0,9.0,67,0.00,,---,0.04,VWS V14.00,2013-07-22 20:43:00,
2013-07-22 16:47:00,77.6,66.6,29.71,SE,144,0.0,9.0,69,0.00,,---,0.04,VWS V14.00,2013-07-22 20:47:00,
2013-07-22 16:48:00,77.6,65.8,29.71,SE,144,0.0,9.0,67,0.00,,---,0.04,VWS V14.00,2013-07-22 20:48:00,
2013-07-22 16:52:00,78.1,66.3,29.71,SE,145,0.0,9.0,67,0.00,,---,0.04,VWS V14.00,2013-07-22 20:52:00,
2013-07-22 16:53:00,78.1,66.3,29.71,SE,145,0.0,9.0,67,0.00,,---,0.04,VWS V14.00,2013-07-22 20:53:00,
2013-07-22 16:58:00,78.5,66.6,29.71,South,171,0.0,9.0,67,0.00,,---,0.04,VWS V14.00,2013-07-22 20:58:00,
2013-07-22 17:03:00,78.1,67.1,29.71,South,188,0.0,0.0,69,0.00,,---,0.04,VWS V14.00,2013-07-22 21:03:00,
2013-07-22 17:08:00,78.6,68.0,29.71,South,179,0.0,1.0,70,0.00,,---,0.04,VWS V14.00,2013-07-22 21:08:00,
2013-07-22 17:13:00,78.5,65.8,29.71,South,179,0.0,1.0,65,0.00,,---,0.04,VWS V14.00,2013-07-22 21:13:00,
2013-07-22 17:14:00,78.5,65.8,29.71,South,179,0.0,1.0,65,0.00,,---,0.04,VWS V14.00,2013-07-22 21:14:00,
2013-07-22 17:19:00,79.0,66.2,29.70,ESE,112,0.0,4.0,65,0.00,,---,0.04,VWS V14.00,2013-07-22 21:19:00,
2013-07-22 17:24:00,79.8,63.7,29.70,SE,134,0.0,4.0,58,0.00,,---,0.04,VWS V14.00,2013-07-22 21:24:00,
2013-07-22 17:29:00,80.1,65.9,29.70,SE,127,0.0,4.0,62,0.00,,---,0.04,VWS V14.00,2013-07-22 21:29:00,
2013-07-22 17:30:00,79.9,65.7,29.70,SE,127,0.0,4.0,62,0.00,,---,0.04,VWS V14.00,2013-07-22 21:30:00,
2013-07-22 17:34:00,79.8,65.6,29.69,SE,127,0.0,4.0,62,0.00,,---,0.04,VWS V14.00,2013-07-22 21:34:00,
2013-07-22 17:35:00,79.8,65.6,29.69,SE,127,0.0,4.0,62,0.00,,---,0.04,VWS V14.00,2013-07-22 21:35:00,
2013-07-22 17:39:00,79.2,65.5,29.69,South,176,0.0,4.0,63,0.00,,---,0.04,VWS V14.00,2013-07-22 21:39:00,
2013-07-22 17:40:00,79.2,64.6,29.69,South,176,0.0,4.0,61,0.00,,---,0.04,VWS V14.00,2013-07-22 21:40:00,
2013-07-22 17:44:00,79.2,66.0,29.69,South,178,0.0,4.0,64,0.00,,---,0.04,VWS V14.00,2013-07-22 21:44:00,
2013-07-22 17:45:00,79.2,66.0,29.69,South,178,0.0,4.0,64,0.00,,---,0.04,VWS V14.00,2013-07-22 21:45:00,
2013-07-22 17:49:00,79.0,64.9,29.69,SSE,161,0.0,4.0,62,0.00,,---,0.04,VWS V14.00,2013-07-22 21:49:00,
2013-07-22 17:50:00,78.8,64.7,29.69,SSE,161,0.0,4.0,62,0.00,,---,0.04,VWS V14.00,2013-07-22 21:50:00,
2013-07-22 17:54:00,79.0,65.8,29.69,SSE,161,0.0,4.0,64,0.00,,---,0.04,VWS V14.00,2013-07-22 21:54:00,
2013-07-22 17:55:00,79.0,65.8,29.69,SSE,161,0.0,4.0,64,0.00,,---,0.04,VWS V14.00,2013-07-22 21:55:00,
2013-07-22 17:56:00,78.8,64.2,29.69,SSE,161,0.0,4.0,61,0.00,,---,0.04,VWS V14.00,2013-07-22 21:56:00,
2013-07-22 17:59:00,78.1,64.9,29.69,SSE,161,0.0,4.0,64,0.00,,---,0.04,VWS V14.00,2013-07-22 21:59:00,
2013-07-22 18:00:00,77.9,64.8,29.69,SSE,161,0.0,4.0,64,0.00,,---,0.04,VWS V14.00,2013-07-22 22:00:00,
2013-07-22 18:01:00,77.9,65.2,29.69,SSE,161,0.0,4.0,65,0.00,,---,0.04,VWS V14.00,2013-07-22 22:01:00,
2013-07-22 18:05:00,78.3,66.0,29.69,SSE,161,0.0,0.0,66,0.00,,---,0.04,VWS V14.00,2013-07-22 22:05:00,
2013-07-22 18:06:00,78.1,65.4,29.69,SSE,161,0.0,0.0,65,0.00,,---,0.04,VWS V14.00,2013-07-22 22:06:00,
2013-07-22 18:10:00,78.5,65.3,29.69,SSE,161,0.0,0.0,64,0.00,,---,0.04,VWS V14.00,2013-07-22 22:10:00,
2013-07-22 18:11:00,78.5,65.3,29.69,SSE,151,0.0,0.0,64,0.00,,---,0.04,VWS V14.00,2013-07-22 22:11:00,
2013-07-22 18:15:00,79.0,65.8,29.69,ESE,120,0.0,1.0,64,0.00,,---,0.04,VWS V14.00,2013-07-22 22:15:00,
2013-07-22 18:16:00,79.6,65.4,29.68,ESE,120,0.0,1.0,62,0.00,,---,0.04,VWS V14.00,2013-07-22 22:16:00,
2013-07-22 18:20:00,79.9,65.3,29.68,ESE,120,0.0,1.0,61,0.00,,---,0.04,VWS V14.00,2013-07-22 22:20:00,
2013-07-22 18:21:00,79.9,65.3,29.68,ESE,120,0.0,1.0,61,0.00,,---,0.04,VWS V14.00,2013-07-22 22:21:00,
2013-07-22 18:22:00,80.1,65.4,29.68,ESE,123,0.0,1.0,61,0.00,,---,0.04,VWS V14.00,2013-07-22 22:22:00,
2013-07-22 18:25:00,79.6,64.5,29.68,SE,138,0.0,1.0,60,0.00,,---,0.04,VWS V14.00,2013-07-22 22:25:00,
2013-07-22 18:26:00,79.6,65.0,29.68,SE,138,0.0,1.0,61,0.00,,---,0.04,VWS V14.00,2013-07-22 22:26:00,
2013-07-22 18:27:00,79.4,65.7,29.68,SE,126,0.0,1.0,63,0.00,,---,0.04,VWS V14.00,2013-07-22 22:27:00,
2013-07-22 18:30:00,79.4,64.8,29.68,ESE,120,0.0,2.0,61,0.00,,---,0.04,VWS V14.00,2013-07-22 22:30:00,
2013-07-22 18:31:00,79.4,64.8,29.68,ESE,123,0.0,2.0,61,0.00,,---,0.04,VWS V14.00,2013-07-22 22:31:00,
2013-07-22 18:32:00,79.4,65.3,29.68,ESE,123,0.0,2.0,62,0.00,,---,0.04,VWS V14.00,2013-07-22 22:32:00,
2013-07-22 18:35:00,78.8,65.2,29.68,SE,127,0.0,2.0,63,0.00,,---,0.04,VWS V14.00,2013-07-22 22:35:00,
2013-07-22 18:36:00,78.6,65.4,29.68,SE,127,0.0,2.0,64,0.00,,---,0.04,VWS V14.00,2013-07-22 22:36:00,
2013-07-22 18:37:00,78.6,65.9,29.68,SE,127,0.0,2.0,65,0.00,,---,0.04,VWS V14.00,2013-07-22 22:37:00,
2013-07-22 18:41:00,78.5,65.3,29.68,South,189,0.0,4.0,64,0.00,,---,0.04,VWS V14.00,2013-07-22 22:41:00,
2013-07-22 18:42:00,78.8,66.1,29.68,SSE,148,0.0,4.0,65,0.00,,---,0.04,VWS V14.00,2013-07-22 22:42:00,
2013-07-22 18:46:00,78.5,65.3,29.67,SSE,148,0.0,4.0,64,0.00,,---,0.04,VWS V14.00,2013-07-22 22:46:00,
2013-07-22 18:47:00,78.1,64.9,29.67,SSE,148,0.0,4.0,64,0.00,,---,0.04,VWS V14.00,2013-07-22 22:47:00,
2013-07-22 18:51:00,78.1,65.4,29.67,SSE,154,0.0,4.0,65,0.00,,---,0.04,VWS V14.00,2013-07-22 22:51:00,
2013-07-22 18:52:00,78.3,66.0,29.67,SSE,154,0.0,4.0,66,0.00,,---,0.04,VWS V14.00,2013-07-22 22:52:00,
2013-07-22 18:56:00,78.5,66.6,29.67,SE,145,0.0,4.0,67,0.00,,---,0.04,VWS V14.00,2013-07-22 22:56:00,
2013-07-22 18:57:00,78.5,65.8,29.67,SE,145,0.0,4.0,65,0.00,,---,0.04,VWS V14.00,2013-07-22 22:57:00,
2013-07-22 19:01:00,78.3,65.1,29.67,SE,145,0.0,4.0,64,0.00,,---,0.04,VWS V14.00,2013-07-22 23:01:00,
2013-07-22 19:02:00,78.3,65.6,29.67,SE,145,0.0,0.0,65,0.00,,---,0.04,VWS V14.00,2013-07-22 23:02:00,
2013-07-22 19:06:00,77.4,66.0,29.67,SE,145,0.0,0.0,68,0.00,,---,0.04,VWS V14.00,2013-07-22 23:06:00,
2013-07-22 19:07:00,77.2,66.2,29.67,SE,145,0.0,0.0,69,0.00,,---,0.04,VWS V14.00,2013-07-22 23:07:00,
2013-07-22 19:08:00,77.0,66.1,29.67,SE,145,0.0,0.0,69,0.00,,---,0.04,VWS V14.00,2013-07-22 23:08:00,
2013-07-22 19:11:00,76.7,65.8,29.67,SE,145,0.0,0.0,69,0.00,,---,0.04,VWS V14.00,2013-07-22 23:11:00,
2013-07-22 19:12:00,76.7,66.2,29.67,SE,145,0.0,0.0,70,0.00,,---,0.04,VWS V14.00,2013-07-22 23:12:00,
2013-07-22 19:13:00,76.5,66.0,29.67,SE,145,0.0,0.0,70,0.00,,---,0.04,VWS V14.00,2013-07-22 23:13:00,
2013-07-22 19:16:00,76.5,65.6,29.67,SE,145,0.0,0.0,69,0.00,,---,0.04,VWS V14.00,2013-07-22 23:16:00,
2013-07-22 19:17:00,76.8,65.9,29.67,SE,145,0.0,0.0,69,0.00,,---,0.04,VWS V14.00,2013-07-22 23:17:00,
2013-07-22 19:18:00,76.8,65.9,29.67,SE,145,0.0,0.0,69,0.00,,---,0.04,VWS V14.00,2013-07-22 23:18:00,
2013-07-22 19:21:00,77.6,66.2,29.67,SE,145,0.0,0.0,68,0.00,,---,0.04,VWS V14.00,2013-07-22 23:21:00,
2013-07-22 19:22:00,77.7,65.9,29.67,SE,145,0.0,0.0,67,0.00,,---,0.04,VWS V14.00,2013-07-22 23:22:00,
2013-07-22 19:23:00,77.7,65.9,29.67,SE,145,0.0,0.0,67,0.00,,---,0.04,VWS V14.00,2013-07-22 23:23:00,
2013-07-22 19:26:00,77.9,65.6,29.67,SE,145,0.0,0.0,66,0.00,,---,0.04,VWS V14.00,2013-07-22 23:26:00,
2013-07-22 19:28:00,77.7,65.4,29.67,SE,145,0.0,0.0,66,0.00,,---,0.04,VWS V14.00,2013-07-22 23:28:00,
2013-07-22 19:31:00,77.7,65.9,29.66,SE,145,0.0,0.0,67,0.00,,---,0.04,VWS V14.00,2013-07-22 23:31:00,
2013-07-22 19:33:00,77.7,65.9,29.66,SE,145,0.0,0.0,67,0.00,,---,0.04,VWS V14.00,2013-07-22 23:33:00,
2013-07-22 19:34:00,77.7,64.6,29.66,SE,145,0.0,0.0,64,0.00,,---,0.04,VWS V14.00,2013-07-22 23:34:00,
2013-07-22 19:36:00,77.9,64.3,29.66,SE,145,0.0,0.0,63,0.00,,---,0.04,VWS V14.00,2013-07-22 23:36:00,
2013-07-22 19:38:00,77.7,65.0,29.66,SE,145,0.0,0.0,65,0.00,,---,0.04,VWS V14.00,2013-07-22 23:38:00,
2013-07-22 19:39:00,77.9,64.8,29.66,SE,145,0.0,0.0,64,0.00,,---,0.04,VWS V14.00,2013-07-22 23:39:00,
2013-07-22 19:42:00,77.4,65.2,29.66,SE,145,0.0,0.0,66,0.00,,---,0.04,VWS V14.00,2013-07-22 23:42:00,
2013-07-22 19:43:00,77.6,65.3,29.66,SE,145,0.0,0.0,66,0.00,,---,0.04,VWS V14.00,2013-07-22 23:43:00,
2013-07-22 19:44:00,77.6,64.9,29.66,SE,145,0.0,0.0,65,0.00,,---,0.04,VWS V14.00,2013-07-22 23:44:00,
2013-07-22 19:47:00,77.6,64.9,29.67,SE,145,0.0,0.0,65,0.00,,---,0.04,VWS V14.00,2013-07-22 23:47:00,
2013-07-22 19:48:00,77.6,65.3,29.67,SSE,147,0.0,0.0,66,0.00,,---,0.04,VWS V14.00,2013-07-22 23:48:00,
2013-07-22 19:49:00,77.6,65.3,29.67,SSE,147,0.0,0.0,66,0.00,,---,0.04,VWS V14.00,2013-07-22 23:49:00,
2013-07-22 19:52:00,77.4,64.7,29.67,SSE,147,0.0,0.0,65,0.00,,---,0.04,VWS V14.00,2013-07-22 23:52:00,
2013-07-22 19:53:00,77.4,65.2,29.67,SSE,147,0.0,0.0,66,0.00,,---,0.04,VWS V14.00,2013-07-22 23:53:00,
2013-07-22 19:54:00,77.2,65.0,29.67,SSE,147,0.0,0.0,66,0.00,,---,0.04,VWS V14.00,2013-07-22 23:54:00,
2013-07-22 19:57:00,77.0,64.3,29.67,SSE,147,0.0,0.0,65,0.00,,---,0.04,VWS V14.00,2013-07-22 23:57:00,
2013-07-22 19:58:00,77.0,64.8,29.67,SSE,147,0.0,0.0,66,0.00,,---,0.04,VWS V14.00,2013-07-22 23:58:00,
2013-07-22 19:59:00,77.0,65.2,29.67,SSE,147,0.0,0.0,67,0.00,,---,0.04,VWS V14.00,2013-07-22 23:59:00,
2013-07-22 20:02:00,76.7,65.3,29.66,SSE,147,0.0,0.0,68,0.00,,---,0.04,VWS V14.00,2013-07-23 00:02:00,
2013-07-22 20:03:00,76.7,65.8,29.66,SSE,147,0.0,0.0,69,0.00,,---,0.04,VWS V14.00,2013-07-23 00:03:00,
2013-07-22 20:04:00,76.5,65.2,29.66,SSE,147,0.0,0.0,68,0.00,,---,0.04,VWS V14.00,2013-07-23 00:04:00,
2013-07-22 20:07:00,76.7,65.3,29.66,SSE,147,0.0,0.0,68,0.00,,---,0.04,VWS V14.00,2013-07-23 00:07:00,
2013-07-22 20:08:00,76.5,65.6,29.66,SSE,147,0.0,0.0,69,0.00,,---,0.04,VWS V14.00,2013-07-23 00:08:00,
2013-07-22 20:09:00,76.7,65.8,29.66,SSE,147,0.0,0.0,69,0.00,,---,0.04,VWS V14.00,2013-07-23 00:09:00,
2013-07-22 20:10:00,76.7,65.3,29.66,SSE,147,0.0,0.0,68,0.00,,---,0.04,VWS V14.00,2013-07-23 00:10:00,
2013-07-22 20:12:00,76.7,65.3,29.66,SSE,147,0.0,0.0,68,0.00,,---,0.04,VWS V14.00,2013-07-23 00:12:00,
2013-07-22 20:14:00,76.8,65.0,29.66,SSE,147,0.0,0.0,67,0.00,,---,0.04,VWS V14.00,2013-07-23 00:14:00,
2013-07-22 20:15:00,76.8,65.4,29.66,SSE,147,0.0,0.0,68,0.00,,---,0.04,VWS V14.00,2013-07-23 00:15:00,
2013-07-22 20:17:00,76.7,65.8,29.66,SSE,147,0.0,0.0,69,0.00,,---,0.04,VWS V14.00,2013-07-23 00:17:00,
2013-07-22 20:19:00,76.7,65.8,29.66,SSE,147,0.0,0.0,69,0.00,,---,0.04,VWS V14.00,2013-07-23 00:19:00,
2013-07-22 20:20:00,76.7,65.3,29.66,SSE,147,0.0,0.0,68,0.00,,---,0.04,VWS V14.00,2013-07-23 00:20:00,
2013-07-22 20:22:00,76.1,65.6,29.66,SSE,147,0.0,0.0,70,0.00,,---,0.04,VWS V14.00,2013-07-23 00:22:00,
2013-07-22 20:24:00,76.1,65.6,29.66,SSE,147,0.0,0.0,70,0.00,,---,0.04,VWS V14.00,2013-07-23 00:24:00,
2013-07-22 20:25:00,76.0,65.5,29.66,SSE,147,0.0,0.0,70,0.00,,---,0.04,VWS V14.00,2013-07-23 00:25:00,
2013-07-22 20:27:00,76.0,65.5,29.66,SE,145,0.0,1.0,70,0.00,,---,0.04,VWS V14.00,2013-07-23 00:27:00,
2013-07-22 20:29:00,76.0,65.5,29.66,SE,145,0.0,1.0,70,0.00,,---,0.04,VWS V14.00,2013-07-23 00:29:00,
2013-07-22 20:30:00,76.0,65.1,29.66,SE,145,0.0,1.0,69,0.00,,---,0.04,VWS V14.00,2013-07-23 00:30:00,
2013-07-22 20:33:00,75.8,65.3,29.66,SE,145,0.0,1.0,70,0.00,,---,0.04,VWS V14.00,2013-07-23 00:33:00,
2013-07-22 20:34:00,75.8,65.3,29.66,SE,145,0.0,1.0,70,0.00,,---,0.04,VWS V14.00,2013-07-23 00:34:00,
2013-07-22 20:35:00,75.8,64.9,29.66,SE,145,0.0,1.0,69,0.00,,---,0.04,VWS V14.00,2013-07-23 00:35:00,
2013-07-22 20:38:00,76.0,65.5,29.66,SE,145,0.0,1.0,70,0.00,,---,0.04,VWS V14.00,2013-07-23 00:38:00,
2013-07-22 20:39:00,75.8,64.9,29.66,SE,145,0.0,1.0,69,0.00,,---,0.04,VWS V14.00,2013-07-23 00:39:00,
2013-07-22 20:40:00,75.8,65.3,29.66,SE,145,0.0,1.0,70,0.00,,---,0.04,VWS V14.00,2013-07-23 00:40:00,
2013-07-22 20:41:00,75.6,65.1,29.66,SE,145,0.0,1.0,70,0.00,,---,0.04,VWS V14.00,2013-07-23 00:41:00,
2013-07-22 20:43:00,75.3,65.3,29.66,SE,145,0.0,1.0,71,0.00,,---,0.04,VWS V14.00,2013-07-23 00:43:00,
2013-07-22 20:44:00,75.3,65.3,29.66,SE,145,0.0,1.0,71,0.00,,---,0.04,VWS V14.00,2013-07-23 00:44:00,
2013-07-22 20:45:00,75.3,65.3,29.66,SE,145,0.0,1.0,71,0.00,,---,0.04,VWS V14.00,2013-07-23 00:45:00,
2013-07-22 20:46:00,75.3,65.3,29.66,SE,145,0.0,1.0,71,0.00,,---,0.04,VWS V14.00,2013-07-23 00:46:00,
2013-07-22 20:48:00,74.6,65.0,29.66,SE,145,0.0,1.0,72,0.00,,---,0.04,VWS V14.00,2013-07-23 00:48:00,
2013-07-22 20:49:00,74.4,65.2,29.66,SE,145,0.0,1.0,73,0.00,,---,0.04,VWS V14.00,2013-07-23 00:49:00,
2013-07-22 20:51:00,74.2,65.4,29.66,SE,145,0.0,1.0,74,0.00,,---,0.04,VWS V14.00,2013-07-23 00:51:00,
2013-07-22 20:54:00,73.5,65.5,29.66,SE,144,0.0,1.0,76,0.00,,---,0.04,VWS V14.00,2013-07-23 00:54:00,
2013-07-22 20:56:00,73.5,65.5,29.66,SE,144,0.0,1.0,76,0.00,,---,0.04,VWS V14.00,2013-07-23 00:56:00,
2013-07-22 20:59:00,73.3,65.3,29.66,SE,144,0.0,1.0,76,0.00,,---,0.04,VWS V14.00,2013-07-23 00:59:00,
2013-07-22 21:00:00,73.2,65.2,29.66,SE,144,0.0,1.0,76,0.00,,---,0.04,VWS V14.00,2013-07-23 01:00:00,
2013-07-22 21:01:00,73.0,65.4,29.66,SE,144,0.0,1.0,77,0.00,,---,0.04,VWS V14.00,2013-07-23 01:01:00,
2013-07-22 21:04:00,72.7,65.1,29.66,SE,144,0.0,0.0,77,0.00,,---,0.04,VWS V14.00,2013-07-23 01:04:00,
2013-07-22 21:05:00,72.7,65.4,29.66,SE,144,0.0,0.0,78,0.00,,---,0.04,VWS V14.00,2013-07-23 01:05:00,
2013-07-22 21:06:00,72.7,65.4,29.66,SE,144,0.0,0.0,78,0.00,,---,0.04,VWS V14.00,2013-07-23 01:06:00,
2013-07-22 21:09:00,72.7,65.1,29.66,SE,144,0.0,0.0,77,0.00,,---,0.04,VWS V14.00,2013-07-23 01:09:00,
2013-07-22 21:10:00,72.7,65.4,29.66,SE,144,0.0,0.0,78,0.00,,---,0.04,VWS V14.00,2013-07-23 01:10:00,
2013-07-22 21:11:00,72.5,65.3,29.66,SE,144,0.0,0.0,78,0.00,,---,0.04,VWS V14.00,2013-07-23 01:11:00,
2013-07-22 21:14:00,72.1,65.6,29.66,SE,144,0.0,0.0,80,0.00,,---,0.04,VWS V14.00,2013-07-23 01:14:00,
2013-07-22 21:15:00,72.0,65.5,29.67,SE,144,0.0,0.0,80,0.00,,---,0.04,VWS V14.00,2013-07-23 01:15:00,
2013-07-22 21:16:00,72.0,65.5,29.67,SE,144,0.0,0.0,80,0.00,,---,0.04,VWS V14.00,2013-07-23 01:16:00,
2013-07-22 21:19:00,71.6,65.8,29.67,SE,144,0.0,0.0,82,0.00,,---,0.04,VWS V14.00,2013-07-23 01:19:00,
2013-07-22 21:20:00,71.6,65.8,29.67,SE,144,0.0,0.0,82,0.00,,---,0.04,VWS V14.00,2013-07-23 01:20:00,
2013-07-22 21:21:00,71.5,65.7,29.67,SE,144,0.0,0.0,82,0.00,,---,0.04,VWS V14.00,2013-07-23 01:21:00,
2013-07-22 21:22:00,71.5,65.7,29.67,SE,144,0.0,0.0,82,0.00,,---,0.04,VWS V14.00,2013-07-23 01:22:00,
2013-07-22 21:25:00,71.3,65.9,29.67,SE,144,0.0,0.0,83,0.00,,---,0.04,VWS V14.00,2013-07-23 01:25:00,
2013-07-22 21:26:00,71.1,65.7,29.67,SE,144,0.0,0.0,83,0.00,,---,0.04,VWS V14.00,2013-07-23 01:26:00,
2013-07-22 21:27:00,70.9,65.5,29.67,SE,144,0.0,0.0,83,0.00,,---,0.04,VWS V14.00,2013-07-23 01:27:00,
2013-07-22 21:30:00,70.6,65.5,29.67,SE,144,0.0,0.0,84,0.00,,---,0.04,VWS V14.00,2013-07-23 01:30:00,
2013-07-22 21:32:00,70.6,65.9,29.67,SE,144,0.0,0.0,85,0.00,,---,0.04,VWS V14.00,2013-07-23 01:32:00,
2013-07-22 21:35:00,70.4,66.0,29.67,SE,144,0.0,0.0,86,0.00,,---,0.04,VWS V14.00,2013-07-23 01:35:00,
2013-07-22 21:36:00,70.4,66.0,29.67,SE,144,0.0,0.0,86,0.00,,---,0.04,VWS V14.00,2013-07-23 01:36:00,
2013-07-22 21:37:00,70.3,65.9,29.67,SE,144,0.0,0.0,86,0.00,,---,0.04,VWS V14.00,2013-07-23 01:37:00,
2013-07-22 21:40:00,70.4,66.0,29.67,SE,144,0.0,0.0,86,0.00,,---,0.04,VWS V14.00,2013-07-23 01:40:00,
2013-07-22 21:41:00,70.4,66.0,29.67,SE,144,0.0,0.0,86,0.00,,---,0.04,VWS V14.00,2013-07-23 01:41:00,
2013-07-22 21:42:00,70.4,65.7,29.67,SE,144,0.0,0.0,85,0.00,,---,0.04,VWS V14.00,2013-07-23 01:42:00,
2013-07-22 21:46:00,70.3,65.9,29.68,SE,144,0.0,0.0,86,0.00,,---,0.04,VWS V14.00,2013-07-23 01:46:00,
2013-07-22 21:47:00,70.3,65.9,29.68,SE,144,0.0,0.0,86,0.00,,---,0.04,VWS V14.00,2013-07-23 01:47:00,
2013-07-22 21:51:00,69.9,65.5,29.68,SE,144,0.0,0.0,86,0.00,,---,0.04,VWS V14.00,2013-07-23 01:51:00,
2013-07-22 21:52:00,69.9,65.5,29.68,SE,144,0.0,0.0,86,0.00,,---,0.04,VWS V14.00,2013-07-23 01:52:00,
2013-07-22 21:56:00,69.8,65.4,29.68,SE,144,0.0,0.0,86,0.00,,---,0.04,VWS V14.00,2013-07-23 01:56:00,
2013-07-22 21:57:00,69.6,65.2,29.68,SE,144,0.0,0.0,86,0.00,,---,0.04,VWS V14.00,2013-07-23 01:57:00,
2013-07-22 22:01:00,69.4,65.4,29.68,SE,144,0.0,0.0,87,0.00,,---,0.04,VWS V14.00,2013-07-23 02:01:00,
2013-07-22 22:02:00,69.3,65.6,29.68,SE,144,0.0,0.0,88,0.00,,---,0.04,VWS V14.00,2013-07-23 02:02:00,
2013-07-22 22:06:00,69.1,65.4,29.68,SE,144,0.0,0.0,88,0.00,,---,0.04,VWS V14.00,2013-07-23 02:06:00,
2013-07-22 22:07:00,69.1,65.4,29.68,SE,144,0.0,0.0,88,0.00,,---,0.04,VWS V14.00,2013-07-23 02:07:00,
2013-07-22 22:08:00,69.1,65.4,29.68,SE,144,0.0,0.0,88,0.00,,---,0.04,VWS V14.00,2013-07-23 02:08:00,
2013-07-22 22:11:00,69.1,65.7,29.68,SE,144,0.0,0.0,89,0.00,,---,0.04,VWS V14.00,2013-07-23 02:11:00,
2013-07-22 22:13:00,68.9,65.5,29.68,SE,144,0.0,0.0,89,0.00,,---,0.04,VWS V14.00,2013-07-23 02:13:00,
2013-07-22 22:16:00,68.8,65.4,29.68,SE,144,0.0,0.0,89,0.00,,---,0.04,VWS V14.00,2013-07-23 02:16:00,
2013-07-22 22:18:00,68.6,65.2,29.68,SE,144,0.0,0.0,89,0.00,,---,0.04,VWS V14.00,2013-07-23 02:18:00,
2013-07-22 22:21:00,68.6,65.6,29.68,SE,144,0.0,0.0,90,0.00,,---,0.04,VWS V14.00,2013-07-23 02:21:00,
2013-07-22 22:22:00,68.6,65.6,29.68,SE,144,0.0,0.0,90,0.00,,---,0.04,VWS V14.00,2013-07-23 02:22:00,
2013-07-22 22:23:00,68.6,65.6,29.68,SE,144,0.0,0.0,90,0.00,,---,0.04,VWS V14.00,2013-07-23 02:23:00,
2013-07-22 22:27:00,68.3,65.3,29.68,SE,144,0.0,0.0,90,0.00,,---,0.04,VWS V14.00,2013-07-23 02:27:00,
2013-07-22 22:28:00,68.3,65.3,29.68,SE,144,0.0,0.0,90,0.00,,---,0.04,VWS V14.00,2013-07-23 02:28:00,
2013-07-22 22:32:00,68.3,65.3,29.68,SE,144,0.0,0.0,90,0.00,,---,0.04,VWS V14.00,2013-07-23 02:32:00,
2013-07-22 22:33:00,68.1,65.1,29.68,SE,144,0.0,0.0,90,0.00,,---,0.04,VWS V14.00,2013-07-23 02:33:00,
2013-07-22 22:37:00,68.3,65.6,29.68,SE,144,0.0,0.0,91,0.00,,---,0.04,VWS V14.00,2013-07-23 02:37:00,
2013-07-22 22:38:00,68.3,65.6,29.68,SE,144,0.0,0.0,91,0.00,,---,0.04,VWS V14.00,2013-07-23 02:38:00,
2013-07-22 22:39:00,68.1,65.1,29.68,SE,144,0.0,0.0,90,0.00,,---,0.04,VWS V14.00,2013-07-23 02:39:00,
2013-07-22 22:42:00,68.1,65.4,29.68,SE,144,0.0,0.0,91,0.00,,---,0.04,VWS V14.00,2013-07-23 02:42:00,
2013-07-22 22:43:00,68.1,65.4,29.68,SE,144,0.0,0.0,91,0.00,,---,0.04,VWS V14.00,2013-07-23 02:43:00,
2013-07-22 22:44:00,68.1,65.4,29.68,SE,144,0.0,0.0,91,0.00,,---,0.04,VWS V14.00,2013-07-23 02:44:00,
2013-07-22 22:47:00,68.1,65.4,29.68,SE,144,0.0,0.0,91,0.00,,---,0.04,VWS V14.00,2013-07-23 02:47:00,
2013-07-22 22:48:00,68.1,65.4,29.68,SE,144,0.0,0.0,91,0.00,,---,0.04,VWS V14.00,2013-07-23 02:48:00,
2013-07-22 22:49:00,68.1,65.4,29.68,SE,144,0.0,0.0,91,0.00,,---,0.04,VWS V14.00,2013-07-23 02:49:00,
2013-07-22 22:52:00,68.1,65.4,29.68,SE,144,0.0,0.0,91,0.00,,---,0.04,VWS V14.00,2013-07-23 02:52:00,
2013-07-22 22:54:00,68.1,65.4,29.68,SE,144,0.0,0.0,91,0.00,,---,0.04,VWS V14.00,2013-07-23 02:54:00,
2013-07-22 22:57:00,68.1,65.4,29.68,SE,144,0.0,0.0,91,0.00,,---,0.04,VWS V14.00,2013-07-23 02:57:00,
2013-07-22 22:59:00,68.1,65.4,29.68,SE,144,0.0,0.0,91,0.00,,---,0.04,VWS V14.00,2013-07-23 02:59:00,
2013-07-22 23:02:00,68.1,65.4,29.68,SE,144,0.0,0.0,91,0.00,,---,0.04,VWS V14.00,2013-07-23 03:02:00,
2013-07-22 23:04:00,67.9,65.2,29.68,SE,144,0.0,0.0,91,0.00,,---,0.04,VWS V14.00,2013-07-23 03:04:00,
2013-07-22 23:07:00,67.8,65.1,29.68,SE,144,0.0,0.0,91,0.00,,---,0.04,VWS V14.00,2013-07-23 03:07:00,
2013-07-22 23:08:00,67.6,64.9,29.68,SE,144,0.0,0.0,91,0.00,,---,0.04,VWS V14.00,2013-07-23 03:08:00,
2013-07-22 23:09:00,67.6,64.9,29.68,SE,144,0.0,0.0,91,0.00,,---,0.04,VWS V14.00,2013-07-23 03:09:00,
2013-07-22 23:13:00,67.6,65.2,29.68,SE,144,0.0,0.0,92,0.00,,---,0.04,VWS V14.00,2013-07-23 03:13:00,
2013-07-22 23:14:00,67.6,65.2,29.68,SE,144,0.0,0.0,92,0.00,,---,0.04,VWS V14.00,2013-07-23 03:14:00,
2013-07-22 23:18:00,67.6,65.2,29.69,SE,144,0.0,0.0,92,0.00,,---,0.04,VWS V14.00,2013-07-23 03:18:00,
2013-07-22 23:19:00,67.6,65.2,29.69,SE,144,0.0,0.0,92,0.00,,---,0.04,VWS V14.00,2013-07-23 03:19:00,
2013-07-22 23:23:00,67.8,65.4,29.69,SE,144,0.0,0.0,92,0.00,,---,0.04,VWS V14.00,2013-07-23 03:23:00,
2013-07-22 23:24:00,67.8,65.4,29.69,SE,144,0.0,0.0,92,0.00,,---,0.04,VWS V14.00,2013-07-23 03:24:00,
2013-07-22 23:28:00,67.4,65.0,29.69,SE,144,0.0,0.0,92,0.00,,---,0.04,VWS V14.00,2013-07-23 03:28:00,
2013-07-22 23:29:00,67.4,65.0,29.69,SE,144,0.0,0.0,92,0.00,,---,0.04,VWS V14.00,2013-07-23 03:29:00,
2013-07-22 23:33:00,67.9,65.5,29.68,SE,144,0.0,0.0,92,0.00,,---,0.04,VWS V14.00,2013-07-23 03:33:00,
2013-07-22 23:34:00,67.9,65.5,29.68,SE,144,0.0,0.0,92,0.00,,---,0.04,VWS V14.00,2013-07-23 03:34:00,
2013-07-22 23:38:00,67.4,65.0,29.68,SE,144,0.0,0.0,92,0.00,,---,0.04,VWS V14.00,2013-07-23 03:38:00,
2013-07-22 23:39:00,67.4,65.0,29.68,SE,144,0.0,0.0,92,0.00,,---,0.04,VWS V14.00,2013-07-23 03:39:00,
2013-07-22 23:43:00,67.6,65.2,29.68,SE,144,0.0,0.0,92,0.00,,---,0.04,VWS V14.00,2013-07-23 03:43:00,
2013-07-22 23:44:00,67.6,65.2,29.68,SE,144,0.0,0.0,92,0.00,,---,0.04,VWS V14.00,2013-07-23 03:44:00,
2013-07-22 23:45:00,67.6,65.2,29.68,SE,144,0.0,0.0,92,0.00,,---,0.04,VWS V14.00,2013-07-23 03:45:00,
2013-07-22 23:48:00,67.6,65.2,29.69,SE,144,0.0,0.0,92,0.00,,---,0.04,VWS V14.00,2013-07-23 03:48:00,
2013-07-22 23:49:00,67.8,65.4,29.69,SE,144,0.0,0.0,92,0.00,,---,0.04,VWS V14.00,2013-07-23 03:49:00,
2013-07-22 23:50:00,67.8,65.4,29.69,SE,144,0.0,0.0,92,0.00,,---,0.04,VWS V14.00,2013-07-23 03:50:00,
2013-07-22 23:53:00,67.9,65.5,29.69,SE,144,0.0,0.0,92,0.00,,---,0.04,VWS V14.00,2013-07-23 03:53:00,
2013-07-22 23:55:00,67.9,65.5,29.69,SE,144,0.0,0.0,92,0.00,,---,0.04,VWS V14.00,2013-07-23 03:55:00,
2013-07-22 23:58:00,67.6,65.2,29.69,SE,144,0.0,0.0,92,0.00,,---,0.04,VWS V14.00,2013-07-23 03:58:00,